Time,TemperatureF,DewpointF,PressureIn,WindDirection,WindDirectionDegrees,WindSpeedMPH,WindSpeedGustMPH,Humidity,HourlyPrecipIn,Conditions,Clouds,dailyrainin,SoftwareType,DateUTC
2013-04-26 00:00:00,46.1,43.6,30.09,SSE,163,0.0,0.0,91,0.00,,,0.00,Wunderground v.1.15,2013-04-26 05:00:00,
2013-04-26 00:01:00,46.1,43.6,30.09,SSE,163,0.0,0.0,91,0.00,,,0.00,Wunderground v.1.15,2013-04-26 05:01:00,
2013-04-26 00:06:00,46.0,43.5,30.09,SSE,163,0.0,0.0,91,0.00,,,0.00,Wunderground v.1.15,2013-04-26 05:06:00,
2013-04-26 00:07:00,45.9,43.4,30.09,SSE,163,0.0,0.0,91,0.00,,,0.00,Wunderground v.1.15,2013-04-26 05:07:00,
2013-04-26 00:09:00,45.9,43.7,30.09,SSE,163,0.0,0.0,92,0.00,,,0.00,Wunderground v.1.15,2013-04-26 05:09:00,
2013-04-26 00:13:00,45.9,43.7,30.09,SSE,163,0.0,0.0,92,0.00,,,0.00,Wunderground v.1.15,2013-04-26 05:13:00,
2013-04-26 00:14:00,45.9,43.7,30.09,SSE,163,0.0,0.0,92,0.00,,,0.00,Wunderground v.1.15,2013-04-26 05:14:00,
2013-04-26 00:15:00,45.9,43.7,30.09,SSE,163,0.0,0.0,92,0.00,,,0.00,Wunderground v.1.15,2013-04-26 05:15:00,
2013-04-26 00:20:00,45.9,43.7,30.09,SSE,163,0.0,0.0,92,0.00,,,0.00,Wunderground v.1.15,2013-04-26 05:20:00,
2013-04-26 00:21:00,45.9,43.7,30.09,SSE,163,0.0,0.0,92,0.00,,,0.00,Wunderground v.1.15,2013-04-26 05:21:00,
2013-04-26 00:26:00,45.9,43.7,30.09,SSE,163,0.0,0.0,92,0.00,,,0.00,Wunderground v.1.15,2013-04-26 05:26:00,
2013-04-26 00:27:00,45.8,43.6,30.09,SSE,163,0.0,0.0,92,0.00,,,0.00,Wunderground v.1.15,2013-04-26 05:27:00,
2013-04-26 00:28:00,45.8,43.6,30.09,SSE,163,0.0,0.0,92,0.00,,,0.00,Wunderground v.1.15,2013-04-26 05:28:00,
2013-04-26 00:31:00,45.6,43.4,30.09,SSE,163,0.0,0.0,92,0.00,,,0.00,Wunderground v.1.15,2013-04-26 05:31:00,
2013-04-26 00:33:00,45.5,43.3,30.09,SSE,163,0.0,0.0,92,0.00,,,0.00,Wunderground v.1.15,2013-04-26 05:33:00,
2013-04-26 00:34:00,45.5,43.3,30.09,SSE,163,0.0,0.0,92,0.00,,,0.00,Wunderground v.1.15,2013-04-26 05:34:00,
2013-04-26 00:36:00,45.5,43.3,30.09,SSE,163,0.0,0.0,92,0.00,,,0.00,Wunderground v.1.15,2013-04-26 05:36:00,
2013-04-26 00:37:00,45.5,43.3,30.09,SSE,163,0.0,0.0,92,0.00,,,0.00,Wunderground v.1.15,2013-04-26 05:37:00,
2013-04-26 00:39:00,45.4,43.2,30.09,SSE,163,0.0,0.0,92,0.00,,,0.00,Wunderground v.1.15,2013-04-26 05:39:00,
2013-04-26 00:42:00,45.4,43.2,30.09,SSE,163,0.0,0.0,92,0.00,,,0.00,Wunderground v.1.15,2013-04-26 05:42:00,
2013-04-26 00:44:00,45.3,43.1,30.09,SSE,163,0.0,0.0,92,0.00,,,0.00,Wunderground v.1.15,2013-04-26 05:44:00,
2013-04-26 00:45:00,45.3,43.1,30.09,SSE,163,0.0,0.0,92,0.00,,,0.00,Wunderground v.1.15,2013-04-26 05:45:00,
2013-04-26 00:48:00,45.2,43.0,30.08,SSE,163,0.0,0.0,92,0.00,,,0.00,Wunderground v.1.15,2013-04-26 05:48:00,
2013-04-26 00:49:00,45.2,42.7,30.08,SSE,163,0.0,0.0,91,0.00,,,0.00,Wunderground v.1.15,2013-04-26 05:49:00,
2013-04-26 00:50:00,45.2,42.7,30.08,SSE,163,0.0,0.0,91,0.00,,,0.00,Wunderground v.1.15,2013-04-26 05:50:00,
2013-04-26 00:53:00,45.2,42.7,30.08,SSE,163,0.0,0.0,91,0.00,,,0.00,Wunderground v.1.15,2013-04-26 05:53:00,
2013-04-26 00:54:00,45.2,42.7,30.08,SSE,163,0.0,0.0,91,0.00,,,0.00,Wunderground v.1.15,2013-04-26 05:54:00,
2013-04-26 00:55:00,45.2,43.0,30.08,SSE,163,0.0,0.0,92,0.00,,,0.00,Wunderground v.1.15,2013-04-26 05:55:00,
2013-04-26 00:57:00,45.3,43.1,30.08,SSE,163,0.0,0.0,92,0.00,,,0.00,Wunderground v.1.15,2013-04-26 05:57:00,
2013-04-26 01:02:00,45.4,43.2,30.08,SSE,163,0.0,0.0,92,0.00,,,0.00,Wunderground v.1.15,2013-04-26 06:02:00,
2013-04-26 01:03:00,45.4,43.2,30.08,SSE,163,0.0,0.0,92,0.00,,,0.00,Wunderground v.1.15,2013-04-26 06:03:00,
2013-04-26 01:04:00,45.4,43.2,30.08,SSE,163,0.0,0.0,92,0.00,,,0.00,Wunderground v.1.15,2013-04-26 06:04:00,
2013-04-26 01:06:00,45.5,43.3,30.08,SSE,163,0.0,0.0,92,0.00,,,0.00,Wunderground v.1.15,2013-04-26 06:06:00,
2013-04-26 01:08:00,45.5,43.3,30.08,SSE,163,0.0,0.0,92,0.00,,,0.00,Wunderground v.1.15,2013-04-26 06:08:00,
2013-04-26 01:09:00,45.5,43.3,30.08,SSE,163,0.0,0.0,92,0.00,,,0.00,Wunderground v.1.15,2013-04-26 06:09:00,
2013-04-26 01:10:00,45.5,43.3,30.08,SSE,163,0.0,0.0,92,0.00,,,0.00,Wunderground v.1.15,2013-04-26 06:10:00,
2013-04-26 01:11:00,45.6,43.4,30.08,SSE,163,0.0,0.0,92,0.00,,,0.00,Wunderground v.1.15,2013-04-26 06:11:00,
2013-04-26 01:15:00,45.7,43.5,30.08,SSE,163,0.0,0.0,92,0.00,,,0.00,Wunderground v.1.15,2013-04-26 06:15:00,
2013-04-26 01:16:00,45.7,43.5,30.08,SSE,163,0.0,0.0,92,0.00,,,0.00,Wunderground v.1.15,2013-04-26 06:16:00,
2013-04-26 01:17:00,45.7,43.5,30.08,SSE,163,0.0,0.0,92,0.00,,,0.00,Wunderground v.1.15,2013-04-26 06:17:00,
2013-04-26 01:19:00,45.8,43.6,30.07,SSE,163,0.0,0.0,92,0.00,,,0.00,Wunderground v.1.15,2013-04-26 06:19:00,
2013-04-26 01:21:00,45.8,43.6,30.07,SSE,163,0.0,0.0,92,0.00,,,0.00,Wunderground v.1.15,2013-04-26 06:21:00,
2013-04-26 01:23:00,45.9,43.7,30.07,SSE,163,0.0,0.0,92,0.00,,,0.00,Wunderground v.1.15,2013-04-26 06:23:00,
2013-04-26 01:24:00,45.9,43.7,30.07,SSE,163,0.0,0.0,92,0.00,,,0.00,Wunderground v.1.15,2013-04-26 06:24:00,
2013-04-26 01:28:00,46.0,43.8,30.07,SSE,163,0.0,0.0,92,0.00,,,0.00,Wunderground v.1.15,2013-04-26 06:28:00,
2013-04-26 01:30:00,46.0,43.8,30.07,SSE,163,0.0,0.0,92,0.00,,,0.00,Wunderground v.1.15,2013-04-26 06:30:00,
2013-04-26 01:31:00,46.0,43.8,30.07,SSE,163,0.0,0.0,92,0.00,,,0.00,Wunderground v.1.15,2013-04-26 06:31:00,
2013-04-26 01:32:00,46.0,43.8,30.07,SSE,163,0.0,0.0,92,0.00,,,0.00,Wunderground v.1.15,2013-04-26 06:32:00,
2013-04-26 01:36:00,46.1,43.9,30.07,SSE,163,0.0,0.0,92,0.00,,,0.00,Wunderground v.1.15,2013-04-26 06:36:00,
2013-04-26 01:37:00,46.1,43.9,30.07,SSE,163,0.0,0.0,92,0.00,,,0.00,Wunderground v.1.15,2013-04-26 06:37:00,
2013-04-26 01:38:00,46.1,43.6,30.07,SSE,163,0.0,0.0,91,0.00,,,0.00,Wunderground v.1.15,2013-04-26 06:38:00,
2013-04-26 01:39:00,46.1,43.6,30.07,SSE,163,0.0,0.0,91,0.00,,,0.00,Wunderground v.1.15,2013-04-26 06:39:00,
2013-04-26 01:42:00,46.0,43.5,30.07,SSE,163,0.0,0.0,91,0.00,,,0.00,Wunderground v.1.15,2013-04-26 06:42:00,
2013-04-26 01:43:00,46.0,43.5,30.07,SSE,163,0.0,0.0,91,0.00,,,0.00,Wunderground v.1.15,2013-04-26 06:43:00,
2013-04-26 01:46:00,46.0,43.5,30.07,SSE,163,0.0,0.0,91,0.00,,,0.00,Wunderground v.1.15,2013-04-26 06:46:00,
2013-04-26 01:48:00,46.0,43.8,30.07,SSE,163,0.0,0.0,92,0.00,,,0.00,Wunderground v.1.15,2013-04-26 06:48:00,
2013-04-26 01:50:00,46.0,43.8,30.07,SSE,163,0.0,0.0,92,0.00,,,0.00,Wunderground v.1.15,2013-04-26 06:50:00,
2013-04-26 01:51:00,46.0,43.8,30.07,SSE,163,0.0,0.0,92,0.00,,,0.00,Wunderground v.1.15,2013-04-26 06:51:00,
2013-04-26 01:52:00,46.0,43.8,30.07,SSE,163,0.0,0.0,92,0.00,,,0.00,Wunderground v.1.15,2013-04-26 06:52:00,
2013-04-26 01:56:00,46.1,43.9,30.07,SSE,163,0.0,0.0,92,0.00,,,0.00,Wunderground v.1.15,2013-04-26 06:56:00,
2013-04-26 01:57:00,46.1,43.9,30.07,SSE,163,0.0,0.0,92,0.00,,,0.00,Wunderground v.1.15,2013-04-26 06:57:00,
2013-04-26 01:59:00,46.0,43.8,30.06,SSE,163,0.0,0.0,92,0.00,,,0.00,Wunderground v.1.15,2013-04-26 06:59:00,
2013-04-26 02:01:00,46.0,43.8,30.06,SSE,163,0.0,0.0,92,0.00,,,0.00,Wunderground v.1.15,2013-04-26 07:01:00,
2013-04-26 02:02:00,46.0,43.8,30.06,SSE,163,0.0,0.0,92,0.00,,,0.00,Wunderground v.1.15,2013-04-26 07:02:00,
2013-04-26 02:03:00,46.0,43.8,30.06,SSE,163,0.0,0.0,92,0.00,,,0.00,Wunderground v.1.15,2013-04-26 07:03:00,
2013-04-26 02:05:00,46.0,43.8,30.06,SSE,163,0.0,0.0,92,0.00,,,0.00,Wunderground v.1.15,2013-04-26 07:05:00,
2013-04-26 02:06:00,45.9,43.7,30.06,SSE,163,0.0,0.0,92,0.00,,,0.00,Wunderground v.1.15,2013-04-26 07:06:00,
2013-04-26 02:07:00,45.9,43.7,30.06,SSE,163,0.0,0.0,92,0.00,,,0.00,Wunderground v.1.15,2013-04-26 07:07:00,
2013-04-26 02:09:00,45.9,43.7,30.06,SSE,163,0.0,0.0,92,0.00,,,0.00,Wunderground v.1.15,2013-04-26 07:09:00,
2013-04-26 02:10:00,45.9,43.7,30.06,SSE,163,0.0,0.0,92,0.00,,,0.00,Wunderground v.1.15,2013-04-26 07:10:00,
2013-04-26 02:11:00,45.8,43.6,30.06,SSE,163,0.0,0.0,92,0.00,,,0.00,Wunderground v.1.15,2013-04-26 07:11:00,
2013-04-26 02:12:00,45.8,43.6,30.06,SSE,163,0.0,0.0,92,0.00,,,0.00,Wunderground v.1.15,2013-04-26 07:12:00,
2013-04-26 02:14:00,45.9,43.7,30.06,SSE,163,0.0,0.0,92,0.00,,,0.00,Wunderground v.1.15,2013-04-26 07:14:00,
2013-04-26 02:15:00,45.9,43.7,30.06,SSE,163,0.0,0.0,92,0.00,,,0.00,Wunderground v.1.15,2013-04-26 07:15:00,
2013-04-26 02:16:00,45.9,43.7,30.06,SSE,163,0.0,0.0,92,0.00,,,0.00,Wunderground v.1.15,2013-04-26 07:16:00,
2013-04-26 02:17:00,45.9,43.7,30.06,SSE,163,0.0,0.0,92,0.00,,,0.00,Wunderground v.1.15,2013-04-26 07:17:00,
2013-04-26 02:20:00,46.0,44.1,30.06,SSE,163,0.0,0.0,93,0.00,,,0.00,Wunderground v.1.15,2013-04-26 07:20:00,
2013-04-26 02:21:00,46.0,44.1,30.07,SSE,163,0.0,0.0,93,0.00,,,0.00,Wunderground v.1.15,2013-04-26 07:21:00,
2013-04-26 02:22:00,46.0,44.1,30.07,SSE,163,0.0,0.0,93,0.00,,,0.00,Wunderground v.1.15,2013-04-26 07:22:00,
2013-04-26 02:25:00,46.1,44.2,30.07,SSE,163,0.0,0.0,93,0.00,,,0.00,Wunderground v.1.15,2013-04-26 07:25:00,
2013-04-26 02:26:00,46.1,44.2,30.07,SSE,163,0.0,0.0,93,0.00,,,0.00,Wunderground v.1.15,2013-04-26 07:26:00,
2013-04-26 02:28:00,46.1,44.2,30.07,SSE,163,0.0,0.0,93,0.00,,,0.00,Wunderground v.1.15,2013-04-26 07:28:00,
2013-04-26 02:31:00,46.2,44.3,30.07,SSE,163,0.0,0.0,93,0.00,,,0.00,Wunderground v.1.15,2013-04-26 07:31:00,
2013-04-26 02:32:00,46.3,44.4,30.07,SSE,163,0.0,0.0,93,0.00,,,0.00,Wunderground v.1.15,2013-04-26 07:32:00,
2013-04-26 02:33:00,46.3,44.4,30.07,SSE,163,0.0,0.0,93,0.00,,,0.00,Wunderground v.1.15,2013-04-26 07:33:00,
2013-04-26 02:34:00,46.3,44.4,30.07,SSE,163,0.0,0.0,93,0.00,,,0.00,Wunderground v.1.15,2013-04-26 07:34:00,
2013-04-26 02:36:00,46.3,44.4,30.06,SSE,163,0.0,0.0,93,0.00,,,0.00,Wunderground v.1.15,2013-04-26 07:36:00,
2013-04-26 02:37:00,46.3,44.4,30.06,SSE,163,0.0,0.0,93,0.00,,,0.00,Wunderground v.1.15,2013-04-26 07:37:00,
2013-04-26 02:38:00,46.3,44.4,30.06,SSE,163,0.0,0.0,93,0.00,,,0.00,Wunderground v.1.15,2013-04-26 07:38:00,
2013-04-26 02:40:00,46.4,44.5,30.06,SSE,163,0.0,0.0,93,0.00,,,0.00,Wunderground v.1.15,2013-04-26 07:40:00,
2013-04-26 02:41:00,46.4,44.5,30.06,SSE,163,0.0,0.0,93,0.00,,,0.00,Wunderground v.1.15,2013-04-26 07:41:00,
2013-04-26 02:43:00,46.4,44.5,30.06,SSE,163,0.0,0.0,93,0.00,,,0.00,Wunderground v.1.15,2013-04-26 07:43:00,
2013-04-26 02:45:00,46.5,44.3,30.06,SSE,163,0.0,0.0,92,0.00,,,0.00,Wunderground v.1.15,2013-04-26 07:45:00,
2013-04-26 02:47:00,46.5,44.3,30.06,SSE,163,0.0,0.0,92,0.00,,,0.00,Wunderground v.1.15,2013-04-26 07:47:00,
2013-04-26 02:48:00,46.5,44.3,30.06,SSE,163,0.0,0.0,92,0.00,,,0.00,Wunderground v.1.15,2013-04-26 07:48:00,
2013-04-26 02:49:00,46.5,44.3,30.06,SSE,163,0.0,0.0,92,0.00,,,0.00,Wunderground v.1.15,2013-04-26 07:49:00,
2013-04-26 02:50:00,46.5,44.3,30.06,SSE,163,0.0,0.0,92,0.00,,,0.00,Wunderground v.1.15,2013-04-26 07:50:00,
2013-04-26 02:52:00,46.5,44.3,30.07,SSE,163,0.0,0.0,92,0.00,,,0.00,Wunderground v.1.15,2013-04-26 07:52:00,
2013-04-26 02:54:00,46.5,44.3,30.07,SSE,163,0.0,0.0,92,0.00,,,0.00,Wunderground v.1.15,2013-04-26 07:54:00,
2013-04-26 02:55:00,46.5,44.3,30.07,SSE,163,0.0,0.0,92,0.00,,,0.00,Wunderground v.1.15,2013-04-26 07:55:00,
2013-04-26 02:57:00,46.5,44.3,30.07,SSE,163,0.0,0.0,92,0.00,,,0.00,Wunderground v.1.15,2013-04-26 07:57:00,
2013-04-26 02:59:00,46.5,44.3,30.07,SSE,163,0.0,0.0,92,0.00,,,0.00,Wunderground v.1.15,2013-04-26 07:59:00,
2013-04-26 03:01:00,46.5,44.3,30.07,SSE,163,0.0,0.0,92,0.00,,,0.00,Wunderground v.1.15,2013-04-26 08:01:00,
2013-04-26 03:02:00,46.5,44.3,30.07,SSE,163,0.0,0.0,92,0.00,,,0.00,Wunderground v.1.15,2013-04-26 08:02:00,
2013-04-26 03:04:00,46.5,44.3,30.07,SSE,163,0.0,0.0,92,0.00,,,0.00,Wunderground v.1.15,2013-04-26 08:04:00,
2013-04-26 03:05:00,46.5,44.3,30.07,SSE,163,0.0,0.0,92,0.00,,,0.00,Wunderground v.1.15,2013-04-26 08:05:00,
2013-04-26 03:06:00,46.5,44.3,30.07,SSE,163,0.0,0.0,92,0.00,,,0.00,Wunderground v.1.15,2013-04-26 08:06:00,
2013-04-26 03:08:00,46.5,44.3,30.07,SSE,163,0.0,0.0,92,0.00,,,0.00,Wunderground v.1.15,2013-04-26 08:08:00,
2013-04-26 03:09:00,46.5,44.3,30.07,SSE,163,0.0,0.0,92,0.00,,,0.00,Wunderground v.1.15,2013-04-26 08:09:00,
2013-04-26 03:10:00,46.5,44.3,30.07,SSE,163,0.0,0.0,92,0.00,,,0.00,Wunderground v.1.15,2013-04-26 08:10:00,
2013-04-26 03:11:00,46.5,44.3,30.07,SSE,163,0.0,0.0,92,0.00,,,0.00,Wunderground v.1.15,2013-04-26 08:11:00,
2013-04-26 03:13:00,46.5,44.3,30.07,SSE,163,0.0,0.0,92,0.00,,,0.00,Wunderground v.1.15,2013-04-26 08:13:00,
2013-04-26 03:14:00,46.5,44.3,30.07,SSE,163,0.0,0.0,92,0.00,,,0.00,Wunderground v.1.15,2013-04-26 08:14:00,
2013-04-26 03:15:00,46.5,44.3,30.07,SSE,163,0.0,0.0,92,0.00,,,0.00,Wunderground v.1.15,2013-04-26 08:15:00,
2013-04-26 03:16:00,46.4,44.2,30.06,SSE,163,0.0,0.0,92,0.00,,,0.00,Wunderground v.1.15,2013-04-26 08:16:00,
2013-04-26 03:17:00,46.5,44.3,30.06,SSE,163,0.0,0.0,92,0.00,,,0.00,Wunderground v.1.15,2013-04-26 08:17:00,
2013-04-26 03:19:00,46.5,44.3,30.06,SSE,163,0.0,0.0,92,0.00,,,0.00,Wunderground v.1.15,2013-04-26 08:19:00,
2013-04-26 03:20:00,46.4,44.2,30.06,SSE,163,0.0,0.0,92,0.00,,,0.00,Wunderground v.1.15,2013-04-26 08:20:00,
2013-04-26 03:21:00,46.5,44.3,30.06,SSE,163,0.0,0.0,92,0.00,,,0.00,Wunderground v.1.15,2013-04-26 08:21:00,
2013-04-26 03:23:00,46.4,44.2,30.06,SSE,163,0.0,0.0,92,0.00,,,0.00,Wunderground v.1.15,2013-04-26 08:23:00,
2013-04-26 03:25:00,46.4,44.2,30.06,SSE,163,0.0,0.0,92,0.00,,,0.00,Wunderground v.1.15,2013-04-26 08:25:00,
2013-04-26 03:27:00,46.3,43.8,30.06,SSE,163,0.0,0.0,91,0.00,,,0.00,Wunderground v.1.15,2013-04-26 08:27:00,
2013-04-26 03:28:00,46.3,43.8,30.06,SSE,163,0.0,0.0,91,0.00,,,0.00,Wunderground v.1.15,2013-04-26 08:28:00,
2013-04-26 03:30:00,46.2,43.7,30.06,SSE,163,0.0,0.0,91,0.00,,,0.00,Wunderground v.1.15,2013-04-26 08:30:00,
2013-04-26 03:31:00,46.1,43.6,30.06,SSE,163,0.0,0.0,91,0.00,,,0.00,Wunderground v.1.15,2013-04-26 08:31:00,
2013-04-26 03:34:00,46.0,43.5,30.06,SSE,163,0.0,0.0,91,0.00,,,0.00,Wunderground v.1.15,2013-04-26 08:34:00,
2013-04-26 03:35:00,46.0,43.5,30.06,SSE,163,0.0,0.0,91,0.00,,,0.00,Wunderground v.1.15,2013-04-26 08:35:00,
2013-04-26 03:36:00,46.0,43.5,30.06,SSE,163,0.0,0.0,91,0.00,,,0.00,Wunderground v.1.15,2013-04-26 08:36:00,
2013-04-26 03:39:00,45.9,43.4,30.06,SSE,163,0.0,0.0,91,0.00,,,0.00,Wunderground v.1.15,2013-04-26 08:39:00,
2013-04-26 03:40:00,45.9,43.4,30.06,SSE,163,0.0,0.0,91,0.00,,,0.00,Wunderground v.1.15,2013-04-26 08:40:00,
2013-04-26 03:41:00,45.9,43.4,30.06,SSE,163,0.0,0.0,91,0.00,,,0.00,Wunderground v.1.15,2013-04-26 08:41:00,
2013-04-26 03:45:00,45.8,43.3,30.07,SSE,163,0.0,0.0,91,0.00,,,0.00,Wunderground v.1.15,2013-04-26 08:45:00,
2013-04-26 03:46:00,45.7,43.2,30.07,SSE,163,0.0,0.0,91,0.00,,,0.00,Wunderground v.1.15,2013-04-26 08:46:00,
2013-04-26 03:47:00,45.6,43.1,30.07,SSE,163,0.0,0.0,91,0.00,,,0.00,Wunderground v.1.15,2013-04-26 08:47:00,
2013-04-26 03:50:00,45.5,43.0,30.07,SSE,163,0.0,0.0,91,0.00,,,0.00,Wunderground v.1.15,2013-04-26 08:50:00,
2013-04-26 03:51:00,45.5,43.0,30.07,SSE,163,0.0,0.0,91,0.00,,,0.00,Wunderground v.1.15,2013-04-26 08:51:00,
2013-04-26 03:52:00,45.5,43.0,30.07,SSE,163,0.0,0.0,91,0.00,,,0.00,Wunderground v.1.15,2013-04-26 08:52:00,
2013-04-26 03:53:00,45.5,43.0,30.07,SSE,163,0.0,0.0,91,0.00,,,0.00,Wunderground v.1.15,2013-04-26 08:53:00,
2013-04-26 03:55:00,45.4,42.9,30.07,SSE,163,0.0,0.0,91,0.00,,,0.00,Wunderground v.1.15,2013-04-26 08:55:00,
2013-04-26 03:56:00,45.4,42.9,30.07,SSE,163,0.0,0.0,91,0.00,,,0.00,Wunderground v.1.15,2013-04-26 08:56:00,
2013-04-26 03:57:00,45.4,42.9,30.07,SSE,163,0.0,0.0,91,0.00,,,0.00,Wunderground v.1.15,2013-04-26 08:57:00,
2013-04-26 03:58:00,45.5,43.0,30.07,SSE,163,0.0,0.0,91,0.00,,,0.00,Wunderground v.1.15,2013-04-26 08:58:00,
2013-04-26 03:59:00,45.4,42.9,30.07,SSE,163,0.0,0.0,91,0.00,,,0.00,Wunderground v.1.15,2013-04-26 08:59:00,
2013-04-26 04:01:00,45.4,42.9,30.07,SSE,163,0.0,0.0,91,0.00,,,0.00,Wunderground v.1.15,2013-04-26 09:01:00,
2013-04-26 04:02:00,45.5,43.0,30.07,SSE,163,0.0,0.0,91,0.00,,,0.00,Wunderground v.1.15,2013-04-26 09:02:00,
2013-04-26 04:03:00,45.5,43.0,30.07,SSE,163,0.0,0.0,91,0.00,,,0.00,Wunderground v.1.15,2013-04-26 09:03:00,
2013-04-26 04:04:00,45.5,43.3,30.07,SSE,163,0.0,0.0,92,0.00,,,0.00,Wunderground v.1.15,2013-04-26 09:04:00,
2013-04-26 04:06:00,45.5,43.3,30.07,SSE,163,0.0,0.0,92,0.00,,,0.00,Wunderground v.1.15,2013-04-26 09:06:00,
2013-04-26 04:08:00,45.6,43.4,30.07,SSE,163,0.0,0.0,92,0.00,,,0.00,Wunderground v.1.15,2013-04-26 09:08:00,
2013-04-26 04:09:00,45.6,43.4,30.07,SSE,163,0.0,0.0,92,0.00,,,0.00,Wunderground v.1.15,2013-04-26 09:09:00,
2013-04-26 04:11:00,45.6,43.4,30.07,SSE,163,0.0,0.0,92,0.00,,,0.00,Wunderground v.1.15,2013-04-26 09:11:00,
2013-04-26 04:13:00,45.6,43.4,30.07,SSE,163,0.0,0.0,92,0.00,,,0.00,Wunderground v.1.15,2013-04-26 09:13:00,
2013-04-26 04:14:00,45.7,43.5,30.07,SSE,163,0.0,0.0,92,0.00,,,0.00,Wunderground v.1.15,2013-04-26 09:14:00,
2013-04-26 04:15:00,45.7,43.5,30.07,SSE,163,0.0,0.0,92,0.00,,,0.00,Wunderground v.1.15,2013-04-26 09:15:00,
2013-04-26 04:16:00,45.7,43.5,30.07,SSE,163,0.0,0.0,92,0.00,,,0.00,Wunderground v.1.15,2013-04-26 09:16:00,
2013-04-26 04:19:00,45.8,43.6,30.07,SSE,163,0.0,0.0,92,0.00,,,0.00,Wunderground v.1.15,2013-04-26 09:19:00,
2013-04-26 04:20:00,45.8,43.6,30.07,SSE,163,0.0,0.0,92,0.00,,,0.00,Wunderground v.1.15,2013-04-26 09:20:00,
2013-04-26 04:21:00,45.8,43.6,30.07,SSE,163,0.0,0.0,92,0.00,,,0.00,Wunderground v.1.15,2013-04-26 09:21:00,
2013-04-26 04:24:00,45.9,43.7,30.07,SSE,163,0.0,0.0,92,0.00,,,0.00,Wunderground v.1.15,2013-04-26 09:24:00,
2013-04-26 04:25:00,45.9,43.7,30.07,SSE,163,0.0,0.0,92,0.00,,,0.00,Wunderground v.1.15,2013-04-26 09:25:00,
2013-04-26 04:26:00,45.9,43.7,30.07,SSE,163,0.0,0.0,92,0.00,,,0.00,Wunderground v.1.15,2013-04-26 09:26:00,
2013-04-26 04:27:00,46.0,43.8,30.07,SSE,163,0.0,0.0,92,0.00,,,0.00,Wunderground v.1.15,2013-04-26 09:27:00,
2013-04-26 04:30:00,46.0,44.1,30.07,SSE,163,0.0,0.0,93,0.00,,,0.00,Wunderground v.1.15,2013-04-26 09:30:00,
2013-04-26 04:31:00,46.1,44.2,30.07,SSE,163,0.0,0.0,93,0.00,,,0.00,Wunderground v.1.15,2013-04-26 09:31:00,
2013-04-26 04:32:00,46.1,44.2,30.07,SSE,163,0.0,0.0,93,0.00,,,0.00,Wunderground v.1.15,2013-04-26 09:32:00,
2013-04-26 04:35:00,46.2,44.3,30.07,SSE,163,0.0,0.0,93,0.00,,,0.00,Wunderground v.1.15,2013-04-26 09:35:00,
2013-04-26 04:36:00,46.2,44.3,30.07,SSE,163,0.0,0.0,93,0.00,,,0.00,Wunderground v.1.15,2013-04-26 09:36:00,
2013-04-26 04:37:00,46.2,44.3,30.07,SSE,163,0.0,0.0,93,0.00,,,0.00,Wunderground v.1.15,2013-04-26 09:37:00,
2013-04-26 04:39:00,46.2,44.3,30.07,SSE,163,0.0,0.0,93,0.00,,,0.00,Wunderground v.1.15,2013-04-26 09:39:00,
2013-04-26 04:41:00,46.2,44.3,30.07,SSE,163,0.0,0.0,93,0.00,,,0.00,Wunderground v.1.15,2013-04-26 09:41:00,
2013-04-26 04:42:00,46.3,44.4,30.07,SSE,163,0.0,0.0,93,0.00,,,0.00,Wunderground v.1.15,2013-04-26 09:42:00,
2013-04-26 04:43:00,46.2,44.0,30.08,SSE,163,0.0,0.0,92,0.00,,,0.00,Wunderground v.1.15,2013-04-26 09:43:00,
2013-04-26 04:44:00,46.3,44.1,30.08,SSE,163,0.0,0.0,92,0.00,,,0.00,Wunderground v.1.15,2013-04-26 09:44:00,
2013-04-26 04:46:00,46.3,44.1,30.08,SSE,163,0.0,0.0,92,0.00,,,0.00,Wunderground v.1.15,2013-04-26 09:46:00,
2013-04-26 04:47:00,46.3,44.1,30.08,SSE,163,0.0,0.0,92,0.00,,,0.00,Wunderground v.1.15,2013-04-26 09:47:00,
2013-04-26 04:48:00,46.2,44.0,30.08,SSE,163,0.0,0.0,92,0.00,,,0.00,Wunderground v.1.15,2013-04-26 09:48:00,
2013-04-26 04:50:00,46.3,44.1,30.07,SSE,163,0.0,0.0,92,0.00,,,0.00,Wunderground v.1.15,2013-04-26 09:50:00,
2013-04-26 04:51:00,46.2,44.0,30.07,SSE,163,0.0,0.0,92,0.00,,,0.00,Wunderground v.1.15,2013-04-26 09:51:00,
2013-04-26 04:53:00,46.2,44.0,30.07,SSE,163,0.0,0.0,92,0.00,,,0.00,Wunderground v.1.15,2013-04-26 09:53:00,
2013-04-26 04:55:00,46.3,44.1,30.07,SSE,163,0.0,0.0,92,0.00,,,0.00,Wunderground v.1.15,2013-04-26 09:55:00,
2013-04-26 04:57:00,46.3,44.1,30.07,SSE,163,0.0,0.0,92,0.00,,,0.00,Wunderground v.1.15,2013-04-26 09:57:00,
2013-04-26 04:58:00,46.3,44.1,30.08,SSE,163,0.0,0.0,92,0.00,,,0.00,Wunderground v.1.15,2013-04-26 09:58:00,
2013-04-26 04:59:00,46.3,44.1,30.08,SSE,163,0.0,0.0,92,0.00,,,0.00,Wunderground v.1.15,2013-04-26 09:59:00,
2013-04-26 05:00:00,46.3,44.1,30.08,SSE,163,0.0,0.0,92,0.00,,,0.00,Wunderground v.1.15,2013-04-26 10:00:00,
2013-04-26 05:03:00,46.3,44.1,30.08,SSE,163,0.0,0.0,92,0.00,,,0.00,Wunderground v.1.15,2013-04-26 10:03:00,
2013-04-26 05:04:00,46.3,44.1,30.08,SSE,163,0.0,0.0,92,0.00,,,0.00,Wunderground v.1.15,2013-04-26 10:04:00,
2013-04-26 05:05:00,46.3,44.1,30.08,SSE,163,0.0,0.0,92,0.00,,,0.00,Wunderground v.1.15,2013-04-26 10:05:00,
2013-04-26 05:08:00,46.3,44.1,30.08,SSE,163,0.0,0.0,92,0.00,,,0.00,Wunderground v.1.15,2013-04-26 10:08:00,
2013-04-26 05:09:00,46.3,43.8,30.08,SSE,163,0.0,0.0,91,0.00,,,0.00,Wunderground v.1.15,2013-04-26 10:09:00,
2013-04-26 05:10:00,46.3,43.8,30.08,SSE,163,0.0,0.0,91,0.00,,,0.00,Wunderground v.1.15,2013-04-26 10:10:00,
2013-04-26 05:11:00,46.2,44.0,30.08,SSE,163,0.0,0.0,92,0.00,,,0.00,Wunderground v.1.15,2013-04-26 10:11:00,
2013-04-26 05:13:00,46.2,43.7,30.08,SSE,163,0.0,0.0,91,0.00,,,0.00,Wunderground v.1.15,2013-04-26 10:13:00,
2013-04-26 05:14:00,46.2,43.7,30.08,SSE,163,0.0,0.0,91,0.00,,,0.00,Wunderground v.1.15,2013-04-26 10:14:00,
2013-04-26 05:15:00,46.2,43.7,30.08,SSE,163,0.0,0.0,91,0.00,,,0.00,Wunderground v.1.15,2013-04-26 10:15:00,
2013-04-26 05:17:00,46.2,44.0,30.08,SSE,163,0.0,0.0,92,0.00,,,0.00,Wunderground v.1.15,2013-04-26 10:17:00,
2013-04-26 05:19:00,46.1,43.9,30.08,SSE,163,0.0,0.0,92,0.00,,,0.00,Wunderground v.1.15,2013-04-26 10:19:00,
2013-04-26 05:20:00,46.1,43.9,30.08,SSE,163,0.0,0.0,92,0.00,,,0.00,Wunderground v.1.15,2013-04-26 10:20:00,
2013-04-26 05:21:00,46.2,44.0,30.08,SSE,163,0.0,0.0,92,0.00,,,0.00,Wunderground v.1.15,2013-04-26 10:21:00,
2013-04-26 05:22:00,46.1,43.9,30.08,SSE,163,0.0,0.0,92,0.00,,,0.00,Wunderground v.1.15,2013-04-26 10:22:00,
2013-04-26 05:24:00,46.1,43.6,30.08,SSE,163,0.0,0.0,91,0.00,,,0.00,Wunderground v.1.15,2013-04-26 10:24:00,
2013-04-26 05:27:00,46.1,43.6,30.08,SSE,163,0.0,0.0,91,0.00,,,0.00,Wunderground v.1.15,2013-04-26 10:27:00,
2013-04-26 05:30:00,46.0,43.8,30.08,SSE,163,0.0,0.0,92,0.00,,,0.00,Wunderground v.1.15,2013-04-26 10:30:00,
2013-04-26 05:32:00,45.9,43.7,30.08,SSE,163,0.0,0.0,92,0.00,,,0.00,Wunderground v.1.15,2013-04-26 10:32:00,
2013-04-26 05:33:00,45.9,43.7,30.08,SSE,163,0.0,0.0,92,0.00,,,0.00,Wunderground v.1.15,2013-04-26 10:33:00,
2013-04-26 05:35:00,45.9,43.7,30.08,SSE,163,0.0,0.0,92,0.00,,,0.00,Wunderground v.1.15,2013-04-26 10:35:00,
2013-04-26 05:36:00,45.8,43.6,30.08,SSE,163,0.0,0.0,92,0.00,,,0.00,Wunderground v.1.15,2013-04-26 10:36:00,
2013-04-26 05:37:00,45.8,43.6,30.07,SSE,163,0.0,0.0,92,0.00,,,0.00,Wunderground v.1.15,2013-04-26 10:37:00,
2013-04-26 05:38:00,45.8,43.6,30.07,SSE,163,0.0,0.0,92,0.00,,,0.00,Wunderground v.1.15,2013-04-26 10:38:00,
2013-04-26 05:40:00,45.7,43.5,30.07,SSE,163,0.0,0.0,92,0.00,,,0.00,Wunderground v.1.15,2013-04-26 10:40:00,
2013-04-26 05:42:00,45.6,43.4,30.07,SSE,163,0.0,0.0,92,0.00,,,0.00,Wunderground v.1.15,2013-04-26 10:42:00,
2013-04-26 05:43:00,45.6,43.4,30.07,SSE,163,0.0,0.0,92,0.00,,,0.00,Wunderground v.1.15,2013-04-26 10:43:00,
2013-04-26 05:44:00,45.6,43.4,30.07,SSE,163,0.0,0.0,92,0.00,,,0.00,Wunderground v.1.15,2013-04-26 10:44:00,
2013-04-26 05:45:00,45.6,43.4,30.07,SSE,163,0.0,0.0,92,0.00,,,0.00,Wunderground v.1.15,2013-04-26 10:45:00,
2013-04-26 05:48:00,45.4,43.2,30.07,SSE,163,0.0,0.0,92,0.00,,,0.00,Wunderground v.1.15,2013-04-26 10:48:00,
2013-04-26 05:49:00,45.4,43.2,30.07,SSE,163,0.0,0.0,92,0.00,,,0.00,Wunderground v.1.15,2013-04-26 10:49:00,
2013-04-26 05:50:00,45.4,43.2,30.07,SSE,163,0.0,0.0,92,0.00,,,0.00,Wunderground v.1.15,2013-04-26 10:50:00,
2013-04-26 05:53:00,45.4,43.2,30.08,SSE,163,0.0,0.0,92,0.00,,,0.00,Wunderground v.1.15,2013-04-26 10:53:00,
2013-04-26 05:54:00,45.4,43.2,30.08,SSE,163,0.0,0.0,92,0.00,,,0.00,Wunderground v.1.15,2013-04-26 10:54:00,
2013-04-26 05:55:00,45.3,43.1,30.08,SSE,163,0.0,0.0,92,0.00,,,0.00,Wunderground v.1.15,2013-04-26 10:55:00,
2013-04-26 05:58:00,45.1,42.9,30.08,South,169,0.0,0.0,92,0.00,,,0.00,Wunderground v.1.15,2013-04-26 10:58:00,
2013-04-26 06:00:00,45.0,42.8,30.08,South,169,0.0,0.0,92,0.00,,,0.00,Wunderground v.1.15,2013-04-26 11:00:00,
2013-04-26 06:01:00,45.0,42.8,30.08,South,169,0.0,0.0,92,0.00,,,0.00,Wunderground v.1.15,2013-04-26 11:01:00,
2013-04-26 06:02:00,45.0,42.8,30.08,South,169,0.0,0.0,92,0.00,,,0.00,Wunderground v.1.15,2013-04-26 11:02:00,
2013-04-26 06:03:00,44.9,42.7,30.08,South,169,0.0,0.0,92,0.00,,,0.00,Wunderground v.1.15,2013-04-26 11:03:00,
2013-04-26 06:05:00,44.8,42.6,30.08,South,169,0.0,0.0,92,0.00,,,0.00,Wunderground v.1.15,2013-04-26 11:05:00,
2013-04-26 06:06:00,44.8,42.6,30.08,South,169,0.0,0.0,92,0.00,,,0.00,Wunderground v.1.15,2013-04-26 11:06:00,
2013-04-26 06:08:00,44.7,42.5,30.08,South,169,0.0,0.0,92,0.00,,,0.00,Wunderground v.1.15,2013-04-26 11:08:00,
2013-04-26 06:09:00,44.7,42.5,30.08,South,169,0.0,0.0,92,0.00,,,0.00,Wunderground v.1.15,2013-04-26 11:09:00,
2013-04-26 06:10:00,44.6,42.4,30.08,South,169,0.0,0.0,92,0.00,,,0.00,Wunderground v.1.15,2013-04-26 11:10:00,
2013-04-26 06:11:00,44.6,42.4,30.07,South,169,0.0,0.0,92,0.00,,,0.00,Wunderground v.1.15,2013-04-26 11:11:00,
2013-04-26 06:13:00,44.5,42.3,30.07,South,169,0.0,0.0,92,0.00,,,0.00,Wunderground v.1.15,2013-04-26 11:13:00,
2013-04-26 06:14:00,44.5,42.3,30.08,South,169,0.0,0.0,92,0.00,,,0.00,Wunderground v.1.15,2013-04-26 11:14:00,
2013-04-26 06:15:00,44.5,42.3,30.08,South,169,0.0,0.0,92,0.00,,,0.00,Wunderground v.1.15,2013-04-26 11:15:00,
2013-04-26 06:16:00,44.5,42.3,30.08,South,169,0.0,0.0,92,0.00,,,0.00,Wunderground v.1.15,2013-04-26 11:16:00,
2013-04-26 06:17:00,44.5,42.3,30.08,South,169,0.0,0.0,92,0.00,,,0.00,Wunderground v.1.15,2013-04-26 11:17:00,
2013-04-26 06:19:00,44.5,42.3,30.08,South,169,0.0,0.0,92,0.00,,,0.00,Wunderground v.1.15,2013-04-26 11:19:00,
2013-04-26 06:20:00,44.4,42.2,30.07,South,169,0.0,0.0,92,0.00,,,0.00,Wunderground v.1.15,2013-04-26 11:20:00,
2013-04-26 06:21:00,44.4,42.2,30.08,South,169,0.0,0.0,92,0.00,,,0.00,Wunderground v.1.15,2013-04-26 11:21:00,
2013-04-26 06:22:00,44.4,42.2,30.08,South,169,0.0,0.0,92,0.00,,,0.00,Wunderground v.1.15,2013-04-26 11:22:00,
2013-04-26 06:23:00,44.4,42.5,30.08,South,169,0.0,0.0,93,0.00,,,0.00,Wunderground v.1.15,2013-04-26 11:23:00,
2013-04-26 06:24:00,44.4,42.5,30.08,South,169,0.0,0.0,93,0.00,,,0.00,Wunderground v.1.15,2013-04-26 11:24:00,
2013-04-26 06:26:00,44.4,42.5,30.08,South,169,0.0,0.0,93,0.00,,,0.00,Wunderground v.1.15,2013-04-26 11:26:00,
2013-04-26 06:27:00,44.5,42.6,30.08,South,169,0.0,0.0,93,0.00,,,0.00,Wunderground v.1.15,2013-04-26 11:27:00,
2013-04-26 06:29:00,44.5,42.6,30.08,South,169,0.0,0.0,93,0.00,,,0.00,Wunderground v.1.15,2013-04-26 11:29:00,
2013-04-26 06:30:00,44.5,42.6,30.08,South,169,0.0,0.0,93,0.00,,,0.00,Wunderground v.1.15,2013-04-26 11:30:00,
2013-04-26 06:31:00,44.5,42.6,30.08,South,169,0.0,0.0,93,0.00,,,0.00,Wunderground v.1.15,2013-04-26 11:31:00,
2013-04-26 06:32:00,44.5,42.6,30.08,South,169,0.0,0.0,93,0.00,,,0.00,Wunderground v.1.15,2013-04-26 11:32:00,
2013-04-26 06:35:00,44.4,42.5,30.08,South,169,0.0,0.0,93,0.00,,,0.00,Wunderground v.1.15,2013-04-26 11:35:00,
2013-04-26 06:36:00,44.4,42.5,30.08,South,169,0.0,0.0,93,0.00,,,0.00,Wunderground v.1.15,2013-04-26 11:36:00,
2013-04-26 06:37:00,44.3,42.4,30.08,South,169,0.0,0.0,93,0.00,,,0.00,Wunderground v.1.15,2013-04-26 11:37:00,
2013-04-26 06:40:00,44.3,42.4,30.08,South,169,0.0,0.0,93,0.00,,,0.00,Wunderground v.1.15,2013-04-26 11:40:00,
2013-04-26 06:41:00,44.3,42.4,30.08,South,169,0.0,0.0,93,0.00,,,0.00,Wunderground v.1.15,2013-04-26 11:41:00,
2013-04-26 06:42:00,44.3,42.4,30.08,South,169,0.0,0.0,93,0.00,,,0.00,Wunderground v.1.15,2013-04-26 11:42:00,
2013-04-26 06:45:00,44.3,42.4,30.08,South,169,0.0,0.0,93,0.00,,,0.00,Wunderground v.1.15,2013-04-26 11:45:00,
2013-04-26 06:46:00,44.3,42.4,30.08,South,169,0.0,0.0,93,0.00,,,0.00,Wunderground v.1.15,2013-04-26 11:46:00,
2013-04-26 06:47:00,44.3,42.4,30.08,South,169,0.0,0.0,93,0.00,,,0.00,Wunderground v.1.15,2013-04-26 11:47:00,
2013-04-26 06:48:00,44.3,42.4,30.08,South,169,0.0,0.0,93,0.00,,,0.00,Wunderground v.1.15,2013-04-26 11:48:00,
2013-04-26 06:51:00,44.5,42.6,30.08,South,169,0.0,0.0,93,0.00,,,0.00,Wunderground v.1.15,2013-04-26 11:51:00,
2013-04-26 06:52:00,44.5,42.6,30.08,South,169,0.0,0.0,93,0.00,,,0.00,Wunderground v.1.15,2013-04-26 11:52:00,
2013-04-26 06:53:00,44.6,42.7,30.08,South,169,0.0,0.0,93,0.00,,,0.00,Wunderground v.1.15,2013-04-26 11:53:00,
2013-04-26 06:56:00,44.7,42.8,30.08,South,169,0.0,0.0,93,0.00,,,0.00,Wunderground v.1.15,2013-04-26 11:56:00,
2013-04-26 06:57:00,44.8,42.9,30.08,South,169,0.0,0.0,93,0.00,,,0.00,Wunderground v.1.15,2013-04-26 11:57:00,
2013-04-26 06:58:00,44.8,42.9,30.08,South,169,0.0,0.0,93,0.00,,,0.00,Wunderground v.1.15,2013-04-26 11:58:00,
2013-04-26 07:02:00,45.0,43.1,30.08,South,169,0.0,0.0,93,0.00,,,0.00,Wunderground v.1.15,2013-04-26 12:02:00,
2013-04-26 07:03:00,45.1,43.2,30.08,South,169,0.0,0.0,93,0.00,,,0.00,Wunderground v.1.15,2013-04-26 12:03:00,
2013-04-26 07:07:00,45.6,43.7,30.08,South,169,0.0,0.0,93,0.00,,,0.00,Wunderground v.1.15,2013-04-26 12:07:00,
2013-04-26 07:08:00,45.6,43.7,30.08,South,169,0.0,0.0,93,0.00,,,0.00,Wunderground v.1.15,2013-04-26 12:08:00,
2013-04-26 07:12:00,46.8,43.1,30.08,South,172,0.0,0.0,87,0.00,,,0.00,Wunderground v.1.15,2013-04-26 12:12:00,
2013-04-26 07:13:00,46.9,42.9,30.08,South,172,0.0,0.0,86,0.00,,,0.00,Wunderground v.1.15,2013-04-26 12:13:00,
2013-04-26 07:14:00,47.2,42.9,30.08,South,172,0.0,0.0,85,0.00,,,0.00,Wunderground v.1.15,2013-04-26 12:14:00,
2013-04-26 07:18:00,48.1,42.9,30.08,South,175,0.0,0.0,82,0.00,,,0.00,Wunderground v.1.15,2013-04-26 12:18:00,
2013-04-26 07:19:00,48.3,43.1,30.08,South,190,0.0,0.0,82,0.00,,,0.00,Wunderground v.1.15,2013-04-26 12:19:00,
2013-04-26 07:23:00,49.2,43.0,30.08,South,190,0.0,0.0,79,0.00,,,0.00,Wunderground v.1.15,2013-04-26 12:23:00,
2013-04-26 07:24:00,49.4,42.8,30.08,South,190,0.0,0.0,78,0.00,,,0.00,Wunderground v.1.15,2013-04-26 12:24:00,
2013-04-26 07:25:00,49.6,43.0,30.08,South,190,0.0,0.0,78,0.00,,,0.00,Wunderground v.1.15,2013-04-26 12:25:00,
2013-04-26 07:28:00,49.9,42.6,30.08,South,190,0.0,0.0,76,0.00,,,0.00,Wunderground v.1.15,2013-04-26 12:28:00,
2013-04-26 07:29:00,50.1,43.2,30.08,South,190,0.0,0.0,77,0.00,,,0.00,Wunderground v.1.15,2013-04-26 12:29:00,
2013-04-26 07:30:00,50.1,43.2,30.08,South,190,0.0,0.0,77,0.00,,,0.00,Wunderground v.1.15,2013-04-26 12:30:00,
2013-04-26 07:33:00,50.5,42.2,30.08,South,190,0.0,0.0,73,0.00,,,0.00,Wunderground v.1.15,2013-04-26 12:33:00,
2013-04-26 07:35:00,50.6,42.3,30.08,South,190,0.0,0.0,73,0.00,,,0.00,Wunderground v.1.15,2013-04-26 12:35:00,
2013-04-26 07:36:00,50.8,42.5,30.08,South,190,0.0,0.0,73,0.00,,,0.00,Wunderground v.1.15,2013-04-26 12:36:00,
2013-04-26 07:38:00,51.0,42.3,30.08,South,191,0.0,0.0,72,0.00,,,0.00,Wunderground v.1.15,2013-04-26 12:38:00,
2013-04-26 07:39:00,51.0,42.3,30.08,South,186,0.0,0.0,72,0.00,,,0.00,Wunderground v.1.15,2013-04-26 12:39:00,
2013-04-26 07:40:00,51.1,42.4,30.08,South,186,0.0,0.0,72,0.00,,,0.00,Wunderground v.1.15,2013-04-26 12:40:00,
2013-04-26 07:41:00,51.2,42.5,30.08,South,184,0.0,0.0,72,0.00,,,0.00,Wunderground v.1.15,2013-04-26 12:41:00,
2013-04-26 07:43:00,51.4,42.7,30.08,South,184,0.0,0.0,72,0.00,,,0.00,Wunderground v.1.15,2013-04-26 12:43:00,
2013-04-26 07:44:00,51.4,42.7,30.08,South,184,0.0,0.0,72,0.00,,,0.00,Wunderground v.1.15,2013-04-26 12:44:00,
2013-04-26 07:45:00,51.4,42.7,30.08,South,184,0.0,0.0,72,0.00,,,0.00,Wunderground v.1.15,2013-04-26 12:45:00,
2013-04-26 07:46:00,51.4,42.7,30.08,South,184,0.0,0.0,72,0.00,,,0.00,Wunderground v.1.15,2013-04-26 12:46:00,
2013-04-26 07:48:00,51.5,43.1,30.08,South,184,0.0,0.0,73,0.00,,,0.00,Wunderground v.1.15,2013-04-26 12:48:00,
2013-04-26 07:50:00,51.6,42.5,30.08,South,184,0.0,0.0,71,0.00,,,0.00,Wunderground v.1.15,2013-04-26 12:50:00,
2013-04-26 07:51:00,51.7,42.6,30.08,South,184,0.0,0.0,71,0.00,,,0.00,Wunderground v.1.15,2013-04-26 12:51:00,
2013-04-26 07:52:00,51.7,42.6,30.08,South,184,0.0,0.0,71,0.00,,,0.00,Wunderground v.1.15,2013-04-26 12:52:00,
2013-04-26 07:54:00,52.0,42.5,30.08,South,176,2.0,4.0,70,0.00,,,0.00,Wunderground v.1.15,2013-04-26 12:54:00,
2013-04-26 07:55:00,52.0,42.5,30.08,South,177,1.0,4.0,70,0.00,,,0.00,Wunderground v.1.15,2013-04-26 12:55:00,
2013-04-26 07:57:00,52.3,42.8,30.08,South,177,0.0,4.0,70,0.00,,,0.00,Wunderground v.1.15,2013-04-26 12:57:00,
2013-04-26 08:00:00,52.6,44.5,30.09,SSE,159,2.0,4.0,74,0.00,,,0.00,Wunderground v.1.15,2013-04-26 13:00:00,
2013-04-26 08:01:00,52.7,44.3,30.09,SSE,161,0.0,4.0,73,0.00,,,0.00,Wunderground v.1.15,2013-04-26 13:01:00,
2013-04-26 08:02:00,52.7,43.9,30.08,South,175,0.0,4.0,72,0.00,,,0.00,Wunderground v.1.15,2013-04-26 13:02:00,
2013-04-26 08:03:00,52.8,43.3,30.09,South,175,0.0,1.0,70,0.00,,,0.00,Wunderground v.1.15,2013-04-26 13:03:00,
2013-04-26 08:05:00,53.1,43.2,30.09,South,190,0.0,4.0,69,0.00,,,0.00,Wunderground v.1.15,2013-04-26 13:05:00,
2013-04-26 08:06:00,53.2,42.9,30.09,SSE,165,0.0,4.0,68,0.00,,,0.00,Wunderground v.1.15,2013-04-26 13:06:00,
2013-04-26 08:07:00,53.2,42.9,30.09,South,169,3.0,4.0,68,0.00,,,0.00,Wunderground v.1.15,2013-04-26 13:07:00,
2013-04-26 08:08:00,53.3,43.0,30.10,South,171,0.0,4.0,68,0.00,,,0.00,Wunderground v.1.15,2013-04-26 13:08:00,
2013-04-26 08:11:00,53.5,44.0,30.10,South,171,0.0,4.0,70,0.00,,,0.00,Wunderground v.1.15,2013-04-26 13:11:00,
2013-04-26 08:12:00,53.6,43.7,30.11,South,171,0.0,4.0,69,0.00,,,0.00,Wunderground v.1.15,2013-04-26 13:12:00,
2013-04-26 08:13:00,53.7,44.5,30.11,South,171,0.0,1.0,71,0.00,,,0.00,Wunderground v.1.15,2013-04-26 13:13:00,
2013-04-26 08:16:00,53.9,43.6,30.12,South,172,0.0,1.0,68,0.00,,,0.00,Wunderground v.1.15,2013-04-26 13:16:00,
2013-04-26 08:17:00,54.0,44.4,30.12,South,172,0.0,1.0,70,0.00,,,0.00,Wunderground v.1.15,2013-04-26 13:17:00,
2013-04-26 08:18:00,54.1,43.8,30.13,South,172,0.0,1.0,68,0.00,,,0.00,Wunderground v.1.15,2013-04-26 13:18:00,
2013-04-26 08:21:00,54.3,43.6,30.13,South,172,0.0,1.0,67,0.00,,,0.00,Wunderground v.1.15,2013-04-26 13:21:00,
2013-04-26 08:22:00,54.4,43.7,30.13,South,172,0.0,1.0,67,0.00,,,0.00,Wunderground v.1.15,2013-04-26 13:22:00,
2013-04-26 08:23:00,54.5,43.4,30.13,South,172,0.0,0.0,66,0.00,,,0.00,Wunderground v.1.15,2013-04-26 13:23:00,
2013-04-26 08:24:00,54.6,44.2,30.13,South,172,0.0,0.0,68,0.00,,,0.00,Wunderground v.1.15,2013-04-26 13:24:00,
2013-04-26 08:26:00,54.8,44.8,30.14,South,172,0.0,0.0,69,0.00,,,0.00,Wunderground v.1.15,2013-04-26 13:26:00,
2013-04-26 08:27:00,54.8,44.0,30.14,South,172,0.0,0.0,67,0.00,,,0.00,Wunderground v.1.15,2013-04-26 13:27:00,
2013-04-26 08:28:00,54.9,44.5,30.14,South,172,0.0,0.0,68,0.00,,,0.00,Wunderground v.1.15,2013-04-26 13:28:00,
2013-04-26 08:30:00,55.0,45.4,30.14,South,172,0.0,0.0,70,0.00,,,0.00,Wunderground v.1.15,2013-04-26 13:30:00,
2013-04-26 08:32:00,55.2,45.6,30.15,South,172,0.0,0.0,70,0.00,,,0.00,Wunderground v.1.15,2013-04-26 13:32:00,
2013-04-26 08:33:00,55.3,46.1,30.15,South,172,0.0,0.0,71,0.00,,,0.00,Wunderground v.1.15,2013-04-26 13:33:00,
2013-04-26 08:34:00,55.4,46.2,30.15,South,172,0.0,0.0,71,0.00,,,0.00,Wunderground v.1.15,2013-04-26 13:34:00,
2013-04-26 08:35:00,55.4,45.8,30.15,South,172,0.0,0.0,70,0.00,,,0.00,Wunderground v.1.15,2013-04-26 13:35:00,
2013-04-26 08:37:00,55.4,45.4,30.16,South,172,0.0,0.0,69,0.00,,,0.00,Wunderground v.1.15,2013-04-26 13:37:00,
2013-04-26 08:38:00,55.5,45.1,30.16,South,172,0.0,0.0,68,0.00,,,0.00,Wunderground v.1.15,2013-04-26 13:38:00,
2013-04-26 08:40:00,55.5,46.2,30.16,South,172,0.0,0.0,71,0.00,,,0.00,Wunderground v.1.15,2013-04-26 13:40:00,
2013-04-26 08:42:00,55.6,48.2,30.17,South,172,0.0,0.0,76,0.00,,,0.00,Wunderground v.1.15,2013-04-26 13:42:00,
2013-04-26 08:43:00,55.6,47.8,30.17,South,172,0.0,0.0,75,0.00,,,0.00,Wunderground v.1.15,2013-04-26 13:43:00,
2013-04-26 08:45:00,55.5,47.7,30.17,South,172,0.0,0.0,75,0.00,,,0.00,Wunderground v.1.15,2013-04-26 13:45:00,
2013-04-26 08:48:00,55.5,47.3,30.18,South,172,0.0,0.0,74,0.00,,,0.00,Wunderground v.1.15,2013-04-26 13:48:00,
2013-04-26 08:49:00,55.4,46.9,30.18,South,172,0.0,0.0,73,0.00,,,0.00,Wunderground v.1.15,2013-04-26 13:49:00,
2013-04-26 08:50:00,55.4,47.2,30.18,South,172,0.0,0.0,74,0.00,,,0.00,Wunderground v.1.15,2013-04-26 13:50:00,
2013-04-26 08:53:00,55.5,47.7,30.18,South,172,0.0,0.0,75,0.00,,,0.00,Wunderground v.1.15,2013-04-26 13:53:00,
2013-04-26 08:54:00,55.4,46.9,30.18,South,172,0.0,0.0,73,0.00,,,0.00,Wunderground v.1.15,2013-04-26 13:54:00,
2013-04-26 08:55:00,55.4,45.8,30.18,South,172,0.0,0.0,70,0.00,,,0.00,Wunderground v.1.15,2013-04-26 13:55:00,
2013-04-26 08:56:00,55.4,45.4,30.18,South,172,0.0,0.0,69,0.00,,,0.00,Wunderground v.1.15,2013-04-26 13:56:00,
2013-04-26 08:58:00,55.5,47.0,30.18,South,172,0.0,0.0,73,0.00,,,0.00,Wunderground v.1.15,2013-04-26 13:58:00,
2013-04-26 08:59:00,55.6,46.3,30.18,South,172,0.0,0.0,71,0.00,,,0.00,Wunderground v.1.15,2013-04-26 13:59:00,
2013-04-26 09:00:00,55.6,46.0,30.17,South,172,0.0,0.0,70,0.00,,,0.00,Wunderground v.1.15,2013-04-26 14:00:00,
2013-04-26 09:01:00,55.6,45.6,30.17,South,172,0.0,0.0,69,0.00,,,0.00,Wunderground v.1.15,2013-04-26 14:01:00,
2013-04-26 09:03:00,55.7,46.4,30.17,South,172,0.0,0.0,71,0.00,,,0.00,Wunderground v.1.15,2013-04-26 14:03:00,
2013-04-26 09:04:00,55.7,45.7,30.16,South,173,0.0,0.0,69,0.00,,,0.00,Wunderground v.1.15,2013-04-26 14:04:00,
2013-04-26 09:05:00,55.8,45.0,30.16,South,173,0.0,0.0,67,0.00,,,0.00,Wunderground v.1.15,2013-04-26 14:05:00,
2013-04-26 09:06:00,55.8,45.4,30.16,South,173,0.0,0.0,68,0.00,,,0.00,Wunderground v.1.15,2013-04-26 14:06:00,
2013-04-26 09:08:00,55.9,45.1,30.15,South,172,0.0,0.0,67,0.00,,,0.00,Wunderground v.1.15,2013-04-26 14:08:00,
2013-04-26 09:09:00,55.9,45.1,30.15,South,173,0.0,0.0,67,0.00,,,0.00,Wunderground v.1.15,2013-04-26 14:09:00,
2013-04-26 09:10:00,55.9,44.7,30.15,South,173,0.0,0.0,66,0.00,,,0.00,Wunderground v.1.15,2013-04-26 14:10:00,
2013-04-26 09:11:00,56.0,44.4,30.15,South,173,0.0,0.0,65,0.00,,,0.00,Wunderground v.1.15,2013-04-26 14:11:00,
2013-04-26 09:14:00,56.2,44.2,30.14,South,180,1.0,3.0,64,0.00,,,0.00,Wunderground v.1.15,2013-04-26 14:14:00,
2013-04-26 09:15:00,56.4,44.8,30.15,South,180,0.0,3.0,65,0.00,,,0.00,Wunderground v.1.15,2013-04-26 14:15:00,
2013-04-26 09:16:00,56.5,44.5,30.15,South,179,0.0,3.0,64,0.00,,,0.00,Wunderground v.1.15,2013-04-26 14:16:00,
2013-04-26 09:19:00,56.8,45.2,30.15,South,186,0.0,3.0,65,0.00,,,0.00,Wunderground v.1.15,2013-04-26 14:19:00,
2013-04-26 09:21:00,57.2,45.5,30.15,SSW,198,1.0,3.0,65,0.00,,,0.00,Wunderground v.1.15,2013-04-26 14:21:00,
2013-04-26 09:22:00,57.3,45.6,30.15,SSE,167,0.0,3.0,65,0.00,,,0.00,Wunderground v.1.15,2013-04-26 14:22:00,
2013-04-26 09:24:00,57.7,45.6,30.14,South,175,0.0,3.0,64,0.00,,,0.00,Wunderground v.1.15,2013-04-26 14:24:00,
2013-04-26 09:26:00,57.9,45.0,30.14,South,183,4.0,4.0,62,0.00,,,0.00,Wunderground v.1.15,2013-04-26 14:26:00,
2013-04-26 09:27:00,58.0,44.6,30.13,South,183,0.0,4.0,61,0.00,,,0.00,Wunderground v.1.15,2013-04-26 14:27:00,
2013-04-26 09:28:00,58.1,45.1,30.13,SW,214,0.0,4.0,62,0.00,,,0.00,Wunderground v.1.15,2013-04-26 14:28:00,
2013-04-26 09:30:00,58.3,45.3,30.13,SW,215,0.0,4.0,62,0.00,,,0.00,Wunderground v.1.15,2013-04-26 14:30:00,
2013-04-26 09:31:00,58.5,45.1,30.14,South,182,0.0,4.0,61,0.00,,,0.00,Wunderground v.1.15,2013-04-26 14:31:00,
2013-04-26 09:32:00,58.6,44.8,30.14,South,182,2.0,4.0,60,0.00,,,0.00,Wunderground v.1.15,2013-04-26 14:32:00,
2013-04-26 09:33:00,58.6,44.8,30.14,South,182,0.0,4.0,60,0.00,,,0.00,Wunderground v.1.15,2013-04-26 14:33:00,
2013-04-26 09:35:00,59.0,44.7,30.14,South,183,0.0,1.0,59,0.00,,,0.00,Wunderground v.1.15,2013-04-26 14:35:00,
2013-04-26 09:36:00,59.0,44.7,30.14,South,183,0.0,1.0,59,0.00,,,0.00,Wunderground v.1.15,2013-04-26 14:36:00,
2013-04-26 09:37:00,59.0,45.1,30.14,South,183,0.0,1.0,60,0.00,,,0.00,Wunderground v.1.15,2013-04-26 14:37:00,
2013-04-26 09:38:00,59.0,45.1,30.14,South,183,0.0,1.0,60,0.00,,,0.00,Wunderground v.1.15,2013-04-26 14:38:00,
2013-04-26 09:40:00,59.0,44.2,30.14,South,183,0.0,1.0,58,0.00,,,0.00,Wunderground v.1.15,2013-04-26 14:40:00,
2013-04-26 09:42:00,59.1,43.9,30.14,South,183,0.0,2.0,57,0.00,,,0.00,Wunderground v.1.15,2013-04-26 14:42:00,
2013-04-26 09:43:00,59.2,44.0,30.14,South,183,0.0,2.0,57,0.00,,,0.00,Wunderground v.1.15,2013-04-26 14:43:00,
2013-04-26 09:45:00,59.4,43.7,30.14,South,183,0.0,0.0,56,0.00,,,0.00,Wunderground v.1.15,2013-04-26 14:45:00,
2013-04-26 09:47:00,59.5,43.8,30.14,SSW,192,3.0,4.0,56,0.00,,,0.00,Wunderground v.1.15,2013-04-26 14:47:00,
2013-04-26 09:48:00,59.6,44.3,30.14,ESE,115,0.0,5.0,57,0.00,,,0.00,Wunderground v.1.15,2013-04-26 14:48:00,
2013-04-26 09:49:00,59.6,44.3,30.14,ESE,115,0.0,5.0,57,0.00,,,0.00,Wunderground v.1.15,2013-04-26 14:49:00,
2013-04-26 09:50:00,59.6,43.9,30.14,SSE,154,0.0,5.0,56,0.00,,,0.00,Wunderground v.1.15,2013-04-26 14:50:00,
2013-04-26 09:52:00,59.8,43.6,30.13,ESE,109,0.0,5.0,55,0.00,,,0.00,Wunderground v.1.15,2013-04-26 14:52:00,
2013-04-26 09:54:00,59.8,42.6,30.14,NE,53,0.0,3.0,53,0.00,,,0.00,Wunderground v.1.15,2013-04-26 14:54:00,
2013-04-26 09:55:00,59.9,43.7,30.13,South,180,4.0,4.0,55,0.00,,,0.00,Wunderground v.1.15,2013-04-26 14:55:00,
2013-04-26 09:56:00,59.8,42.6,30.13,South,180,1.0,4.0,53,0.00,,,0.00,Wunderground v.1.15,2013-04-26 14:56:00,
2013-04-26 09:58:00,59.9,44.2,30.13,South,180,0.0,4.0,56,0.00,,,0.00,Wunderground v.1.15,2013-04-26 14:58:00,
2013-04-26 09:59:00,59.9,44.6,30.13,South,180,0.0,4.0,57,0.00,,,0.00,Wunderground v.1.15,2013-04-26 14:59:00,
2013-04-26 10:01:00,60.0,42.8,30.12,SE,136,0.0,4.0,53,0.00,,,0.00,Wunderground v.1.15,2013-04-26 15:01:00,
2013-04-26 10:03:00,59.9,43.2,30.12,SSW,198,0.0,0.0,54,0.00,,,0.00,Wunderground v.1.15,2013-04-26 15:03:00,
2013-04-26 10:04:00,59.9,43.2,30.12,South,178,0.0,4.0,54,0.00,,,0.00,Wunderground v.1.15,2013-04-26 15:04:00,
2013-04-26 10:06:00,59.9,43.2,30.12,South,180,0.0,4.0,54,0.00,,,0.00,Wunderground v.1.15,2013-04-26 15:06:00,
2013-04-26 10:07:00,59.9,43.2,30.12,SSW,207,0.0,4.0,54,0.00,,,0.00,Wunderground v.1.15,2013-04-26 15:07:00,
2013-04-26 10:08:00,59.9,43.2,30.12,SSW,207,0.0,4.0,54,0.00,,,0.00,Wunderground v.1.15,2013-04-26 15:08:00,
2013-04-26 10:09:00,59.9,43.7,30.12,SSW,207,0.0,4.0,55,0.00,,,0.00,Wunderground v.1.15,2013-04-26 15:09:00,
2013-04-26 10:10:00,59.9,43.7,30.12,SSW,207,0.0,4.0,55,0.00,,,0.00,Wunderground v.1.15,2013-04-26 15:10:00,
2013-04-26 10:11:00,59.9,43.7,30.12,ENE,78,2.0,4.0,55,0.00,,,0.00,Wunderground v.1.15,2013-04-26 15:11:00,
2013-04-26 10:12:00,59.9,43.2,30.12,ENE,77,0.0,4.0,54,0.00,,,0.00,Wunderground v.1.15,2013-04-26 15:12:00,
2013-04-26 10:13:00,59.9,44.2,30.12,East,96,0.0,2.0,56,0.00,,,0.00,Wunderground v.1.15,2013-04-26 15:13:00,
2013-04-26 10:14:00,59.9,43.2,30.12,East,96,0.0,2.0,54,0.00,,,0.00,Wunderground v.1.15,2013-04-26 15:14:00,
2013-04-26 10:15:00,59.9,43.2,30.12,East,97,0.0,2.0,54,0.00,,,0.00,Wunderground v.1.15,2013-04-26 15:15:00,
2013-04-26 10:16:00,60.0,43.3,30.12,ESE,105,1.0,4.0,54,0.00,,,0.00,Wunderground v.1.15,2013-04-26 15:16:00,
2013-04-26 10:17:00,60.0,42.8,30.12,ESE,105,0.0,4.0,53,0.00,,,0.00,Wunderground v.1.15,2013-04-26 15:17:00,
2013-04-26 10:19:00,60.1,44.3,30.12,ESE,105,0.0,4.0,56,0.00,,,0.00,Wunderground v.1.15,2013-04-26 15:19:00,
2013-04-26 10:20:00,60.2,44.4,30.12,ESE,105,0.0,4.0,56,0.00,,,0.00,Wunderground v.1.15,2013-04-26 15:20:00,
2013-04-26 10:22:00,60.5,44.7,30.11,South,175,0.0,4.0,56,0.00,,,0.00,Wunderground v.1.15,2013-04-26 15:22:00,
2013-04-26 10:25:00,61.1,44.8,30.11,SSE,164,0.0,6.0,55,0.00,,,0.00,Wunderground v.1.15,2013-04-26 15:25:00,
2013-04-26 10:26:00,61.2,44.9,30.11,SSW,198,0.0,6.0,55,0.00,,,0.00,Wunderground v.1.15,2013-04-26 15:26:00,
2013-04-26 10:27:00,61.4,45.6,30.11,SSW,211,5.0,6.0,56,0.00,,,0.00,Wunderground v.1.15,2013-04-26 15:27:00,
2013-04-26 10:30:00,62.2,44.3,30.11,South,169,0.0,8.0,52,0.00,,,0.00,Wunderground v.1.15,2013-04-26 15:30:00,
2013-04-26 10:31:00,62.2,45.3,30.10,SSW,206,2.0,8.0,54,0.00,,,0.00,Wunderground v.1.15,2013-04-26 15:31:00,
2013-04-26 10:32:00,62.5,45.1,30.10,NW,305,0.0,8.0,53,0.00,,,0.00,Wunderground v.1.15,2013-04-26 15:32:00,
2013-04-26 10:33:00,62.5,44.1,30.10,ESE,123,0.0,8.0,51,0.00,,,0.00,Wunderground v.1.15,2013-04-26 15:33:00,
2013-04-26 10:36:00,62.8,43.3,30.10,SSE,166,4.0,8.0,49,0.00,,,0.00,Wunderground v.1.15,2013-04-26 15:36:00,
2013-04-26 10:37:00,62.7,42.7,30.10,SSW,192,7.0,8.0,48,0.00,,,0.00,Wunderground v.1.15,2013-04-26 15:37:00,
2013-04-26 10:38:00,62.7,42.7,30.10,South,184,4.0,8.0,48,0.00,,,0.00,Wunderground v.1.15,2013-04-26 15:38:00,
2013-04-26 10:41:00,62.6,43.2,30.10,South,190,3.0,8.0,49,0.00,,,0.00,Wunderground v.1.15,2013-04-26 15:41:00,
2013-04-26 10:42:00,62.6,43.7,30.10,SSE,167,0.0,8.0,50,0.00,,,0.00,Wunderground v.1.15,2013-04-26 15:42:00,
2013-04-26 10:43:00,62.6,42.1,30.10,SSE,152,0.0,8.0,47,0.00,,,0.00,Wunderground v.1.15,2013-04-26 15:43:00,
2013-04-26 10:46:00,62.6,44.7,30.11,SSE,152,0.0,5.0,52,0.00,,,0.00,Wunderground v.1.15,2013-04-26 15:46:00,
2013-04-26 10:47:00,62.7,43.3,30.11,SSW,200,6.0,6.0,49,0.00,,,0.00,Wunderground v.1.15,2013-04-26 15:47:00,
2013-04-26 10:48:00,62.8,43.3,30.11,South,179,6.0,11.0,49,0.00,,,0.00,Wunderground v.1.15,2013-04-26 15:48:00,
2013-04-26 10:52:00,63.4,43.9,30.10,SSW,199,6.0,11.0,49,0.00,,,0.00,Wunderground v.1.15,2013-04-26 15:52:00,
2013-04-26 10:53:00,63.4,43.9,30.10,SSW,205,7.0,11.0,49,0.00,,,0.00,Wunderground v.1.15,2013-04-26 15:53:00,
2013-04-26 10:54:00,63.5,42.9,30.10,South,191,4.0,7.0,47,0.00,,,0.00,Wunderground v.1.15,2013-04-26 15:54:00,
2013-04-26 10:58:00,63.9,44.4,30.10,SSE,165,0.0,9.0,49,0.00,,,0.00,Wunderground v.1.15,2013-04-26 15:58:00,
2013-04-26 10:59:00,63.9,44.4,30.10,SSW,196,6.0,9.0,49,0.00,,,0.00,Wunderground v.1.15,2013-04-26 15:59:00,
2013-04-26 11:03:00,64.4,44.3,30.09,South,180,8.0,8.0,48,0.00,,,0.00,Wunderground v.1.15,2013-04-26 16:03:00,
2013-04-26 11:04:00,64.4,44.8,30.10,SSW,202,7.0,8.0,49,0.00,,,0.00,Wunderground v.1.15,2013-04-26 16:04:00,
2013-04-26 11:05:00,64.5,44.9,30.10,SSW,195,7.0,9.0,49,0.00,,,0.00,Wunderground v.1.15,2013-04-26 16:05:00,
2013-04-26 11:08:00,64.7,43.4,30.09,SSW,209,6.0,12.0,46,0.00,,,0.00,Wunderground v.1.15,2013-04-26 16:08:00,
2013-04-26 11:09:00,64.6,43.3,30.09,SSW,192,3.0,12.0,46,0.00,,,0.00,Wunderground v.1.15,2013-04-26 16:09:00,
2013-04-26 11:10:00,64.6,43.3,30.09,South,179,2.0,12.0,46,0.00,,,0.00,Wunderground v.1.15,2013-04-26 16:10:00,
2013-04-26 11:14:00,64.9,44.2,30.09,South,190,6.0,9.0,47,0.00,,,0.00,Wunderground v.1.15,2013-04-26 16:14:00,
2013-04-26 11:15:00,65.0,43.7,30.09,SSW,207,8.0,10.0,46,0.00,,,0.00,Wunderground v.1.15,2013-04-26 16:15:00,
2013-04-26 11:16:00,65.0,44.3,30.08,South,175,5.0,10.0,47,0.00,,,0.00,Wunderground v.1.15,2013-04-26 16:16:00,
2013-04-26 11:17:00,65.0,43.7,30.08,SSW,207,9.0,10.0,46,0.00,,,0.00,Wunderground v.1.15,2013-04-26 16:17:00,
2013-04-26 11:19:00,65.0,44.3,30.08,SSW,202,4.0,10.0,47,0.00,,,0.00,Wunderground v.1.15,2013-04-26 16:19:00,
2013-04-26 11:20:00,65.0,43.7,30.08,South,182,7.0,10.0,46,0.00,,,0.00,Wunderground v.1.15,2013-04-26 16:20:00,
2013-04-26 11:21:00,65.1,44.9,30.07,SSW,203,6.0,10.0,48,0.00,,,0.00,Wunderground v.1.15,2013-04-26 16:21:00,
2013-04-26 11:24:00,65.1,45.5,30.07,ENE,78,0.0,9.0,49,0.00,,,0.00,Wunderground v.1.15,2013-04-26 16:24:00,
2013-04-26 11:25:00,65.1,46.0,30.07,South,173,0.0,9.0,50,0.00,,,0.00,Wunderground v.1.15,2013-04-26 16:25:00,
2013-04-26 11:26:00,65.2,45.5,30.07,South,183,2.0,9.0,49,0.00,,,0.00,Wunderground v.1.15,2013-04-26 16:26:00,
2013-04-26 11:29:00,65.6,45.9,30.07,SSW,196,0.0,9.0,49,0.00,,,0.00,Wunderground v.1.15,2013-04-26 16:29:00,
2013-04-26 11:31:00,66.0,46.8,30.06,South,189,0.0,9.0,50,0.00,,,0.00,Wunderground v.1.15,2013-04-26 16:31:00,
2013-04-26 11:32:00,66.0,46.8,30.06,NNW,341,0.0,9.0,50,0.00,,,0.00,Wunderground v.1.15,2013-04-26 16:32:00,
2013-04-26 11:34:00,66.3,46.0,30.06,South,184,6.0,8.0,48,0.00,,,0.00,Wunderground v.1.15,2013-04-26 16:34:00,
2013-04-26 11:35:00,66.3,46.0,30.06,SSW,198,2.0,8.0,48,0.00,,,0.00,Wunderground v.1.15,2013-04-26 16:35:00,
2013-04-26 11:37:00,66.4,46.7,30.06,SSW,207,7.0,8.0,49,0.00,,,0.00,Wunderground v.1.15,2013-04-26 16:37:00,
2013-04-26 11:39:00,66.5,46.7,30.06,SW,232,0.0,8.0,49,0.00,,,0.00,Wunderground v.1.15,2013-04-26 16:39:00,
2013-04-26 11:40:00,66.6,47.4,30.06,SSW,198,0.0,8.0,50,0.00,,,0.00,Wunderground v.1.15,2013-04-26 16:40:00,
2013-04-26 11:42:00,66.8,46.5,30.06,SSE,153,3.0,9.0,48,0.00,,,0.00,Wunderground v.1.15,2013-04-26 16:42:00,
2013-04-26 11:45:00,67.4,47.6,30.06,ENE,67,1.0,3.0,49,0.00,,,0.00,Wunderground v.1.15,2013-04-26 16:45:00,
2013-04-26 11:46:00,67.4,47.6,30.06,ENE,65,0.0,4.0,49,0.00,,,0.00,Wunderground v.1.15,2013-04-26 16:46:00,
2013-04-26 11:47:00,67.6,46.6,30.06,North,355,2.0,5.0,47,0.00,,,0.00,Wunderground v.1.15,2013-04-26 16:47:00,
2013-04-26 11:48:00,67.7,48.4,30.06,NW,323,0.0,5.0,50,0.00,,,0.00,Wunderground v.1.15,2013-04-26 16:48:00,
2013-04-26 11:51:00,68.0,46.4,30.07,SSW,202,7.0,7.0,46,0.00,,,0.00,Wunderground v.1.15,2013-04-26 16:51:00,
2013-04-26 11:52:00,68.1,45.9,30.07,South,175,2.0,7.0,45,0.00,,,0.00,Wunderground v.1.15,2013-04-26 16:52:00,
2013-04-26 11:53:00,68.1,45.9,30.07,South,190,3.0,7.0,45,0.00,,,0.00,Wunderground v.1.15,2013-04-26 16:53:00,
2013-04-26 11:56:00,68.3,46.7,30.07,South,190,5.0,6.0,46,0.00,,,0.00,Wunderground v.1.15,2013-04-26 16:56:00,
2013-04-26 11:57:00,68.4,46.2,30.07,South,169,9.0,9.0,45,0.00,,,0.00,Wunderground v.1.15,2013-04-26 16:57:00,
2013-04-26 11:58:00,68.4,45.0,30.08,SSW,193,7.0,10.0,43,0.00,,,0.00,Wunderground v.1.15,2013-04-26 16:58:00,
2013-04-26 11:59:00,68.4,43.8,30.08,SSW,194,4.0,10.0,41,0.00,,,0.00,Wunderground v.1.15,2013-04-26 16:59:00,
2013-04-26 12:01:00,68.3,43.7,30.07,SSW,196,9.0,10.0,41,0.00,,,0.00,Wunderground v.1.15,2013-04-26 17:01:00,
2013-04-26 12:02:00,68.3,43.7,30.07,South,178,7.0,10.0,41,0.00,,,0.00,Wunderground v.1.15,2013-04-26 17:02:00,
2013-04-26 12:03:00,68.4,43.1,30.07,South,191,7.0,8.0,40,0.00,,,0.00,Wunderground v.1.15,2013-04-26 17:03:00,
2013-04-26 12:04:00,68.4,43.1,30.07,South,180,5.0,9.0,40,0.00,,,0.00,Wunderground v.1.15,2013-04-26 17:04:00,
2013-04-26 12:07:00,68.6,44.6,30.07,SSE,167,4.0,9.0,42,0.00,,,0.00,Wunderground v.1.15,2013-04-26 17:07:00,
2013-04-26 12:09:00,68.7,44.0,30.07,SSW,196,4.0,9.0,41,0.00,,,0.00,Wunderground v.1.15,2013-04-26 17:09:00,
2013-04-26 12:12:00,69.0,44.9,30.07,ESE,111,0.0,9.0,42,0.00,,,0.00,Wunderground v.1.15,2013-04-26 17:12:00,
2013-04-26 12:13:00,69.0,44.9,30.07,SSE,148,0.0,9.0,42,0.00,,,0.00,Wunderground v.1.15,2013-04-26 17:13:00,
2013-04-26 12:14:00,69.3,44.6,30.07,South,174,5.0,9.0,41,0.00,,,0.00,Wunderground v.1.15,2013-04-26 17:14:00,
2013-04-26 12:18:00,69.4,42.7,30.07,ESE,103,0.0,11.0,38,0.00,,,0.00,Wunderground v.1.15,2013-04-26 17:18:00,
2013-04-26 12:19:00,69.4,43.4,30.07,South,188,6.0,11.0,39,0.00,,,0.00,Wunderground v.1.15,2013-04-26 17:19:00,
2013-04-26 12:20:00,69.4,43.4,30.07,SSW,211,11.0,11.0,39,0.00,,,0.00,Wunderground v.1.15,2013-04-26 17:20:00,
2013-04-26 12:24:00,69.3,43.9,30.06,SE,130,3.0,5.0,40,0.00,,,0.00,Wunderground v.1.15,2013-04-26 17:24:00,
2013-04-26 12:25:00,69.4,43.4,30.06,SE,142,0.0,5.0,39,0.00,,,0.00,Wunderground v.1.15,2013-04-26 17:25:00,
2013-04-26 12:26:00,69.4,44.0,30.06,South,188,3.0,5.0,40,0.00,,,0.00,Wunderground v.1.15,2013-04-26 17:26:00,
2013-04-26 12:29:00,69.7,42.9,30.07,East,91,6.0,6.0,38,0.00,,,0.00,Wunderground v.1.15,2013-04-26 17:29:00,
2013-04-26 12:30:00,69.7,42.9,30.06,SSW,210,7.0,7.0,38,0.00,,,0.00,Wunderground v.1.15,2013-04-26 17:30:00,
2013-04-26 12:31:00,69.7,42.3,30.07,SSW,198,7.0,9.0,37,0.00,,,0.00,Wunderground v.1.15,2013-04-26 17:31:00,
2013-04-26 12:32:00,69.6,42.2,30.06,SSW,208,5.0,9.0,37,0.00,,,0.00,Wunderground v.1.15,2013-04-26 17:32:00,
2013-04-26 12:34:00,69.5,42.8,30.06,SSW,196,2.0,4.0,38,0.00,,,0.00,Wunderground v.1.15,2013-04-26 17:34:00,
2013-04-26 12:35:00,69.4,42.7,30.06,South,191,5.0,7.0,38,0.00,,,0.00,Wunderground v.1.15,2013-04-26 17:35:00,
2013-04-26 12:36:00,69.3,41.9,30.06,SSW,204,8.0,8.0,37,0.00,,,0.00,Wunderground v.1.15,2013-04-26 17:36:00,
2013-04-26 12:37:00,69.2,41.8,30.06,South,184,1.0,8.0,37,0.00,,,0.00,Wunderground v.1.15,2013-04-26 17:37:00,
2013-04-26 12:39:00,69.1,42.4,30.06,South,181,0.0,8.0,38,0.00,,,0.00,Wunderground v.1.15,2013-04-26 17:39:00,
2013-04-26 12:40:00,69.1,43.1,30.06,SE,142,3.0,8.0,39,0.00,,,0.00,Wunderground v.1.15,2013-04-26 17:40:00,
2013-04-26 12:41:00,69.2,42.5,30.06,SSE,157,0.0,8.0,38,0.00,,,0.00,Wunderground v.1.15,2013-04-26 17:41:00,
2013-04-26 12:43:00,69.2,43.2,30.06,South,180,0.0,2.0,39,0.00,,,0.00,Wunderground v.1.15,2013-04-26 17:43:00,
2013-04-26 12:45:00,69.2,41.8,30.06,East,90,0.0,5.0,37,0.00,,,0.00,Wunderground v.1.15,2013-04-26 17:45:00,
2013-04-26 12:46:00,69.2,43.2,30.06,SSW,200,4.0,5.0,39,0.00,,,0.00,Wunderground v.1.15,2013-04-26 17:46:00,
2013-04-26 12:47:00,69.2,43.2,30.06,SSW,195,5.0,7.0,39,0.00,,,0.00,Wunderground v.1.15,2013-04-26 17:47:00,
2013-04-26 12:48:00,69.1,42.4,30.06,SSE,159,0.0,7.0,38,0.00,,,0.00,Wunderground v.1.15,2013-04-26 17:48:00,
2013-04-26 12:50:00,69.1,42.4,30.05,SSE,159,0.0,7.0,38,0.00,,,0.00,Wunderground v.1.15,2013-04-26 17:50:00,
2013-04-26 12:51:00,69.2,43.2,30.05,SSE,159,0.0,7.0,39,0.00,,,0.00,Wunderground v.1.15,2013-04-26 17:51:00,
2013-04-26 12:52:00,69.2,43.2,30.05,South,183,3.0,7.0,39,0.00,,,0.00,Wunderground v.1.15,2013-04-26 17:52:00,
2013-04-26 12:54:00,69.1,43.1,30.05,SSW,194,0.0,2.0,39,0.00,,,0.00,Wunderground v.1.15,2013-04-26 17:54:00,
2013-04-26 12:56:00,69.1,43.8,30.05,SSW,204,3.0,3.0,40,0.00,,,0.00,Wunderground v.1.15,2013-04-26 17:56:00,
2013-04-26 12:57:00,69.1,43.1,30.05,SSW,203,0.0,3.0,39,0.00,,,0.00,Wunderground v.1.15,2013-04-26 17:57:00,
2013-04-26 12:58:00,69.1,42.4,30.05,South,186,2.0,5.0,38,0.00,,,0.00,Wunderground v.1.15,2013-04-26 17:58:00,
2013-04-26 13:00:00,69.0,42.3,30.05,SSE,165,0.0,8.0,38,0.00,,,0.00,Wunderground v.1.15,2013-04-26 18:00:00,
2013-04-26 13:01:00,68.9,42.9,30.06,SSE,153,0.0,8.0,39,0.00,,,0.00,Wunderground v.1.15,2013-04-26 18:01:00,
2013-04-26 13:02:00,68.9,42.9,30.06,SSE,153,0.0,8.0,39,0.00,,,0.00,Wunderground v.1.15,2013-04-26 18:02:00,
2013-04-26 13:03:00,68.9,42.9,30.06,SSE,153,0.0,2.0,39,0.00,,,0.00,Wunderground v.1.15,2013-04-26 18:03:00,
2013-04-26 13:04:00,68.9,42.9,30.06,SSE,152,0.0,2.0,39,0.00,,,0.00,Wunderground v.1.15,2013-04-26 18:04:00,
2013-04-26 13:05:00,68.8,42.8,30.06,SSW,192,3.0,5.0,39,0.00,,,0.00,Wunderground v.1.15,2013-04-26 18:05:00,
2013-04-26 13:07:00,68.7,42.1,30.06,SSW,192,0.0,5.0,38,0.00,,,0.00,Wunderground v.1.15,2013-04-26 18:07:00,
2013-04-26 13:08:00,68.6,42.6,30.06,South,191,5.0,6.0,39,0.00,,,0.00,Wunderground v.1.15,2013-04-26 18:08:00,
2013-04-26 13:09:00,68.6,43.3,30.05,SSE,150,0.0,6.0,40,0.00,,,0.00,Wunderground v.1.15,2013-04-26 18:09:00,
2013-04-26 13:12:00,68.5,43.2,30.05,SSW,202,6.0,6.0,40,0.00,,,0.00,Wunderground v.1.15,2013-04-26 18:12:00,
2013-04-26 13:13:00,68.3,42.4,30.05,South,188,0.0,6.0,39,0.00,,,0.00,Wunderground v.1.15,2013-04-26 18:13:00,
2013-04-26 13:14:00,68.1,44.1,30.05,SSW,198,0.0,4.0,42,0.58,,,0.02,Wunderground v.1.15,2013-04-26 18:14:00,
2013-04-26 13:17:00,67.6,46.6,30.05,ENE,74,0.0,4.0,47,0.19,,,0.02,Wunderground v.1.15,2013-04-26 18:17:00,
2013-04-26 13:18:00,67.5,48.2,30.04,ENE,74,0.0,4.0,50,0.15,,,0.02,Wunderground v.1.15,2013-04-26 18:18:00,
2013-04-26 13:19:00,67.3,48.5,30.04,ENE,70,0.0,4.0,51,0.11,,,0.02,Wunderground v.1.15,2013-04-26 18:19:00,
2013-04-26 13:22:00,66.5,47.8,30.04,North,355,0.0,4.0,51,0.07,,,0.02,Wunderground v.1.15,2013-04-26 18:22:00,
2013-04-26 13:23:00,66.4,48.7,30.04,North,355,0.0,4.0,53,0.07,,,0.02,Wunderground v.1.15,2013-04-26 18:23:00,
2013-04-26 13:25:00,65.8,49.2,30.04,North,355,0.0,0.0,55,0.06,,,0.02,Wunderground v.1.15,2013-04-26 18:25:00,
2013-04-26 13:26:00,65.7,51.0,30.03,North,355,0.0,0.0,59,0.05,,,0.02,Wunderground v.1.15,2013-04-26 18:26:00,
2013-04-26 13:28:00,65.4,52.5,30.04,North,355,0.0,0.0,63,0.04,,,0.02,Wunderground v.1.15,2013-04-26 18:28:00,
2013-04-26 13:29:00,65.1,53.0,30.04,North,355,0.0,0.0,65,0.04,,,0.02,Wunderground v.1.15,2013-04-26 18:29:00,
2013-04-26 13:30:00,64.9,53.7,30.04,North,355,0.0,0.0,67,0.04,,,0.02,Wunderground v.1.15,2013-04-26 18:30:00,
2013-04-26 13:31:00,64.5,51.6,30.04,North,355,0.0,0.0,63,0.00,,,0.02,Wunderground v.1.15,2013-04-26 18:31:00,
2013-04-26 13:33:00,64.4,54.4,30.04,North,355,0.0,0.0,70,0.00,,,0.02,Wunderground v.1.15,2013-04-26 18:33:00,
2013-04-26 13:34:00,64.2,55.0,30.04,North,355,0.0,0.0,72,0.00,,,0.02,Wunderground v.1.15,2013-04-26 18:34:00,
2013-04-26 13:35:00,64.1,55.3,30.04,North,355,0.0,0.0,73,0.00,,,0.02,Wunderground v.1.15,2013-04-26 18:35:00,
2013-04-26 13:36:00,64.0,55.9,30.04,North,355,0.0,0.0,75,0.00,,,0.02,Wunderground v.1.15,2013-04-26 18:36:00,
2013-04-26 13:38:00,63.8,55.7,30.05,North,355,0.0,0.0,75,0.00,,,0.02,Wunderground v.1.15,2013-04-26 18:38:00,
2013-04-26 13:39:00,63.5,56.2,30.05,North,355,0.0,0.0,77,0.00,,,0.02,Wunderground v.1.15,2013-04-26 18:39:00,
2013-04-26 13:40:00,63.4,56.1,30.05,North,355,0.0,0.0,77,0.00,,,0.02,Wunderground v.1.15,2013-04-26 18:40:00,
2013-04-26 13:42:00,62.7,56.1,30.06,North,355,0.0,0.0,79,0.00,,,0.02,Wunderground v.1.15,2013-04-26 18:42:00,
2013-04-26 13:43:00,62.6,56.0,30.06,North,355,0.0,0.0,79,0.00,,,0.02,Wunderground v.1.15,2013-04-26 18:43:00,
2013-04-26 13:45:00,62.0,55.4,30.06,North,355,0.0,0.0,79,0.00,,,0.02,Wunderground v.1.15,2013-04-26 18:45:00,
2013-04-26 13:47:00,61.4,55.2,30.05,North,355,0.0,0.0,80,0.00,,,0.02,Wunderground v.1.15,2013-04-26 18:47:00,
2013-04-26 13:48:00,61.3,55.1,30.05,North,355,0.0,0.0,80,0.00,,,0.02,Wunderground v.1.15,2013-04-26 18:48:00,
2013-04-26 13:50:00,60.9,54.3,30.04,North,355,0.0,0.0,79,0.00,,,0.02,Wunderground v.1.15,2013-04-26 18:50:00,
2013-04-26 13:51:00,60.6,54.0,30.04,North,355,0.0,0.0,79,0.00,,,0.02,Wunderground v.1.15,2013-04-26 18:51:00,
2013-04-26 13:52:00,60.3,53.8,30.04,North,355,0.0,0.0,79,0.00,,,0.02,Wunderground v.1.15,2013-04-26 18:52:00,
2013-04-26 13:54:00,60.1,53.6,30.04,North,355,0.0,0.0,79,0.00,,,0.02,Wunderground v.1.15,2013-04-26 18:54:00,
2013-04-26 13:55:00,59.9,54.1,30.05,North,355,0.0,0.0,81,0.00,,,0.02,Wunderground v.1.15,2013-04-26 18:55:00,
2013-04-26 13:56:00,59.6,54.1,30.05,North,355,0.0,0.0,82,0.00,,,0.02,Wunderground v.1.15,2013-04-26 18:56:00,
2013-04-26 13:58:00,59.3,53.8,30.05,North,355,0.0,0.0,82,0.00,,,0.02,Wunderground v.1.15,2013-04-26 18:58:00,
2013-04-26 13:59:00,59.0,53.8,30.06,North,355,0.0,0.0,83,0.00,,,0.02,Wunderground v.1.15,2013-04-26 18:59:00,
2013-04-26 14:01:00,58.8,54.0,30.06,North,355,0.0,0.0,84,0.00,,,0.02,Wunderground v.1.15,2013-04-26 19:01:00,
2013-04-26 14:03:00,58.5,54.0,30.06,North,355,0.0,0.0,85,0.00,,,0.02,Wunderground v.1.15,2013-04-26 19:03:00,
2013-04-26 14:05:00,58.2,53.7,30.04,North,355,0.0,0.0,85,0.00,,,0.02,Wunderground v.1.15,2013-04-26 19:05:00,
2013-04-26 14:06:00,58.0,53.5,30.06,NW,324,0.0,0.0,85,0.00,,,0.02,Wunderground v.1.15,2013-04-26 19:06:00,
2013-04-26 14:08:00,57.8,54.0,30.10,NW,324,0.0,0.0,87,0.00,,,0.03,Wunderground v.1.15,2013-04-26 19:08:00,
2013-04-26 14:09:00,57.8,54.3,30.11,NW,323,0.0,0.0,88,0.00,,,0.03,Wunderground v.1.15,2013-04-26 19:09:00,
2013-04-26 14:10:00,57.7,54.2,30.13,NW,323,1.0,1.0,88,0.00,,,0.03,Wunderground v.1.15,2013-04-26 19:10:00,
2013-04-26 14:11:00,57.6,53.8,30.14,NW,324,0.0,3.0,87,0.00,,,0.03,Wunderground v.1.15,2013-04-26 19:11:00,
2013-04-26 14:14:00,57.5,53.7,30.14,NW,323,0.0,0.0,87,0.00,,,0.03,Wunderground v.1.15,2013-04-26 19:14:00,
2013-04-26 14:15:00,57.5,53.0,30.15,NW,323,0.0,0.0,85,0.00,,,0.03,Wunderground v.1.15,2013-04-26 19:15:00,
2013-04-26 14:16:00,57.5,52.7,30.15,NW,323,0.0,0.0,84,0.00,,,0.03,Wunderground v.1.15,2013-04-26 19:16:00,
2013-04-26 14:19:00,57.6,52.5,30.15,NW,323,0.0,0.0,83,0.00,,,0.03,Wunderground v.1.15,2013-04-26 19:19:00,
2013-04-26 14:20:00,57.7,52.2,30.15,NW,317,0.0,0.0,82,0.00,,,0.03,Wunderground v.1.15,2013-04-26 19:20:00,
2013-04-26 14:22:00,57.7,52.9,30.15,NW,317,0.0,0.0,84,0.00,,,0.03,Wunderground v.1.15,2013-04-26 19:22:00,
2013-04-26 14:23:00,57.7,52.9,30.15,NW,317,0.0,0.0,84,0.04,,,0.04,Wunderground v.1.15,2013-04-26 19:23:00,
2013-04-26 14:24:00,57.7,52.2,30.15,NW,306,0.0,3.0,82,0.04,,,0.04,Wunderground v.1.15,2013-04-26 19:24:00,
2013-04-26 14:25:00,57.7,52.2,30.15,NW,306,0.0,3.0,82,0.04,,,0.04,Wunderground v.1.15,2013-04-26 19:25:00,
2013-04-26 14:27:00,57.7,52.2,30.15,NW,306,0.0,3.0,82,0.16,,,0.05,Wunderground v.1.15,2013-04-26 19:27:00,
2013-04-26 14:28:00,57.7,52.6,30.15,NW,306,0.0,3.0,83,0.16,,,0.05,Wunderground v.1.15,2013-04-26 19:28:00,
2013-04-26 14:29:00,57.6,52.5,30.14,NW,306,0.0,3.0,83,0.16,,,0.05,Wunderground v.1.15,2013-04-26 19:29:00,
2013-04-26 14:31:00,57.5,52.4,30.13,NW,306,0.0,3.0,83,0.13,,,0.05,Wunderground v.1.15,2013-04-26 19:31:00,
2013-04-26 14:32:00,57.5,52.7,30.13,NW,306,0.0,3.0,84,0.10,,,0.05,Wunderground v.1.15,2013-04-26 19:32:00,
2013-04-26 14:33:00,57.5,52.7,30.13,NW,306,0.0,3.0,84,0.09,,,0.05,Wunderground v.1.15,2013-04-26 19:33:00,
2013-04-26 14:34:00,57.4,52.6,30.12,WNW,291,0.0,0.0,84,0.07,,,0.05,Wunderground v.1.15,2013-04-26 19:34:00,
2013-04-26 14:35:00,57.4,52.9,30.12,NNW,334,0.0,0.0,85,0.07,,,0.05,Wunderground v.1.15,2013-04-26 19:35:00,
2013-04-26 14:36:00,57.3,53.1,30.11,NNW,333,0.0,0.0,86,0.06,,,0.05,Wunderground v.1.15,2013-04-26 19:36:00,
2013-04-26 14:38:00,57.3,53.1,30.10,NNW,333,0.0,0.0,86,0.05,,,0.05,Wunderground v.1.15,2013-04-26 19:38:00,
2013-04-26 14:39:00,57.2,53.4,30.10,NNW,333,0.0,0.0,87,0.05,,,0.05,Wunderground v.1.15,2013-04-26 19:39:00,
2013-04-26 14:40:00,57.2,53.4,30.10,NNW,334,0.0,0.0,87,0.04,,,0.05,Wunderground v.1.15,2013-04-26 19:40:00,
2013-04-26 14:41:00,57.1,53.3,30.09,NNW,333,0.0,0.0,87,0.04,,,0.05,Wunderground v.1.15,2013-04-26 19:41:00,
2013-04-26 14:43:00,57.0,53.5,30.07,North,360,0.0,0.0,88,0.04,,,0.05,Wunderground v.1.15,2013-04-26 19:43:00,
2013-04-26 14:44:00,56.9,53.4,30.06,SSE,167,1.0,3.0,88,0.00,,,0.05,Wunderground v.1.15,2013-04-26 19:44:00,
2013-04-26 14:45:00,56.9,53.4,30.06,SSE,167,0.0,3.0,88,0.00,,,0.05,Wunderground v.1.15,2013-04-26 19:45:00,
2013-04-26 14:46:00,56.8,53.3,30.03,South,183,3.0,3.0,88,0.00,,,0.05,Wunderground v.1.15,2013-04-26 19:46:00,
2013-04-26 14:48:00,56.8,53.0,30.00,SSW,197,5.0,7.0,87,0.00,,,0.06,Wunderground v.1.15,2013-04-26 19:48:00,
2013-04-26 14:49:00,56.8,53.0,29.98,SSW,193,5.0,7.0,87,0.00,,,0.06,Wunderground v.1.15,2013-04-26 19:49:00,
2013-04-26 14:50:00,56.8,53.0,29.98,SSW,200,7.0,7.0,87,0.00,,,0.06,Wunderground v.1.15,2013-04-26 19:50:00,
2013-04-26 14:52:00,56.9,51.8,29.99,South,187,4.0,9.0,83,0.00,,,0.06,Wunderground v.1.15,2013-04-26 19:52:00,
2013-04-26 14:54:00,57.1,51.7,30.00,SW,231,3.0,3.0,82,0.00,,,0.06,Wunderground v.1.15,2013-04-26 19:54:00,
2013-04-26 14:55:00,57.1,51.7,30.02,SW,233,3.0,3.0,82,0.00,,,0.06,Wunderground v.1.15,2013-04-26 19:55:00,
2013-04-26 14:57:00,57.3,52.8,30.06,WNW,291,0.0,4.0,85,0.00,,,0.06,Wunderground v.1.15,2013-04-26 19:57:00,
2013-04-26 14:59:00,57.3,52.8,30.08,WNW,291,0.0,4.0,85,0.00,,,0.06,Wunderground v.1.15,2013-04-26 19:59:00,
2013-04-26 15:00:00,57.3,52.8,30.08,WNW,291,0.0,4.0,85,0.00,,,0.06,Wunderground v.1.15,2013-04-26 20:00:00,
2013-04-26 15:01:00,57.3,52.8,30.08,WNW,291,0.0,4.0,85,0.00,,,0.06,Wunderground v.1.15,2013-04-26 20:01:00,
2013-04-26 15:02:00,57.3,53.1,30.08,WNW,291,0.0,4.0,86,0.00,,,0.06,Wunderground v.1.15,2013-04-26 20:02:00,
2013-04-26 15:04:00,57.2,53.4,30.07,WNW,291,0.0,1.0,87,0.00,,,0.06,Wunderground v.1.15,2013-04-26 20:04:00,
2013-04-26 15:06:00,57.3,53.5,30.07,WNW,291,0.0,1.0,87,0.00,,,0.06,Wunderground v.1.15,2013-04-26 20:06:00,
2013-04-26 15:07:00,57.3,53.5,30.07,WNW,291,0.0,1.0,87,0.00,,,0.06,Wunderground v.1.15,2013-04-26 20:07:00,
2013-04-26 15:09:00,57.4,53.9,30.07,WNW,291,0.0,1.0,88,0.00,,,0.06,Wunderground v.1.15,2013-04-26 20:09:00,
2013-04-26 15:10:00,57.5,54.0,30.07,WNW,291,0.0,1.0,88,0.00,,,0.06,Wunderground v.1.15,2013-04-26 20:10:00,
2013-04-26 15:11:00,57.5,54.0,30.07,WNW,291,0.0,1.0,88,0.00,,,0.06,Wunderground v.1.15,2013-04-26 20:11:00,
2013-04-26 15:12:00,57.5,54.0,30.07,WNW,291,0.0,1.0,88,0.00,,,0.06,Wunderground v.1.15,2013-04-26 20:12:00,
2013-04-26 15:15:00,57.6,53.8,30.06,WNW,297,0.0,0.0,87,0.00,,,0.06,Wunderground v.1.15,2013-04-26 20:15:00,
2013-04-26 15:16:00,57.7,53.9,30.06,WNW,297,0.0,0.0,87,0.00,,,0.06,Wunderground v.1.15,2013-04-26 20:16:00,
2013-04-26 15:17:00,57.8,54.0,30.06,WNW,299,0.0,0.0,87,0.00,,,0.06,Wunderground v.1.15,2013-04-26 20:17:00,
2013-04-26 15:20:00,57.9,53.4,30.05,NE,44,0.0,3.0,85,0.00,,,0.06,Wunderground v.1.15,2013-04-26 20:20:00,
2013-04-26 15:22:00,58.1,53.3,30.05,ESE,114,3.0,3.0,84,0.00,,,0.06,Wunderground v.1.15,2013-04-26 20:22:00,
2013-04-26 15:23:00,58.2,52.4,30.05,ESE,103,2.0,5.0,81,0.00,,,0.06,Wunderground v.1.15,2013-04-26 20:23:00,
2013-04-26 15:25:00,58.4,52.3,30.04,SSE,153,0.0,5.0,80,0.00,,,0.06,Wunderground v.1.15,2013-04-26 20:25:00,
2013-04-26 15:26:00,58.4,52.3,30.04,SSE,153,0.0,5.0,80,0.00,,,0.06,Wunderground v.1.15,2013-04-26 20:26:00,
2013-04-26 15:28:00,58.6,52.4,30.04,SSW,212,0.0,5.0,80,0.00,,,0.06,Wunderground v.1.15,2013-04-26 20:28:00,
2013-04-26 15:31:00,59.0,52.5,30.03,NNW,333,0.0,5.0,79,0.00,,,0.06,Wunderground v.1.15,2013-04-26 20:31:00,
2013-04-26 15:33:00,59.0,52.1,30.03,NNE,17,0.0,0.0,78,0.00,,,0.06,Wunderground v.1.15,2013-04-26 20:33:00,
2013-04-26 15:34:00,59.0,52.1,30.03,NNE,17,0.0,0.0,78,0.00,,,0.06,Wunderground v.1.15,2013-04-26 20:34:00,
2013-04-26 15:36:00,59.0,51.8,30.03,North,360,3.0,7.0,77,0.00,,,0.06,Wunderground v.1.15,2013-04-26 20:36:00,
2013-04-26 15:37:00,59.0,51.4,30.03,NW,314,4.0,7.0,76,0.00,,,0.06,Wunderground v.1.15,2013-04-26 20:37:00,
2013-04-26 15:38:00,59.0,51.1,30.04,East,82,0.0,7.0,75,0.00,,,0.06,Wunderground v.1.15,2013-04-26 20:38:00,
2013-04-26 15:39:00,59.0,51.4,30.04,East,79,0.0,7.0,76,0.00,,,0.06,Wunderground v.1.15,2013-04-26 20:39:00,
2013-04-26 15:41:00,59.0,51.4,30.03,NNW,328,3.0,7.0,76,0.00,,,0.06,Wunderground v.1.15,2013-04-26 20:41:00,
2013-04-26 15:42:00,59.0,51.1,30.03,NW,320,0.0,7.0,75,0.00,,,0.06,Wunderground v.1.15,2013-04-26 20:42:00,
2013-04-26 15:44:00,59.0,51.4,30.03,NW,323,0.0,1.0,76,0.00,,,0.06,Wunderground v.1.15,2013-04-26 20:44:00,
2013-04-26 15:45:00,59.0,51.1,30.03,WNW,288,0.0,2.0,75,0.00,,,0.06,Wunderground v.1.15,2013-04-26 20:45:00,
2013-04-26 15:47:00,59.0,51.1,30.04,WNW,290,0.0,2.0,75,0.00,,,0.06,Wunderground v.1.15,2013-04-26 20:47:00,
2013-04-26 15:49:00,59.0,51.1,30.02,WNW,297,0.0,4.0,75,0.00,,,0.06,Wunderground v.1.15,2013-04-26 20:49:00,
2013-04-26 15:50:00,59.0,51.1,30.02,WNW,297,0.0,4.0,75,0.00,,,0.06,Wunderground v.1.15,2013-04-26 20:50:00,
2013-04-26 15:52:00,59.0,51.4,30.02,SSE,161,0.0,4.0,76,0.00,,,0.06,Wunderground v.1.15,2013-04-26 20:52:00,
2013-04-26 15:53:00,59.0,51.4,30.02,ESE,109,2.0,5.0,76,0.00,,,0.06,Wunderground v.1.15,2013-04-26 20:53:00,
2013-04-26 15:55:00,59.1,51.2,30.02,South,171,0.0,3.0,75,0.00,,,0.06,Wunderground v.1.15,2013-04-26 20:55:00,
2013-04-26 15:57:00,59.3,51.4,30.02,SE,146,0.0,3.0,75,0.00,,,0.06,Wunderground v.1.15,2013-04-26 20:57:00,
2013-04-26 15:58:00,59.4,51.5,30.02,WSW,250,1.0,3.0,75,0.00,,,0.06,Wunderground v.1.15,2013-04-26 20:58:00,
2013-04-26 16:00:00,59.5,51.2,30.02,NNW,341,2.0,3.0,74,0.00,,,0.06,Wunderground v.1.15,2013-04-26 21:00:00,
2013-04-26 16:03:00,59.6,51.3,30.03,NW,321,0.0,3.0,74,0.00,,,0.06,Wunderground v.1.15,2013-04-26 21:03:00,
2013-04-26 16:04:00,59.6,51.3,30.03,NW,321,0.0,1.0,74,0.00,,,0.06,Wunderground v.1.15,2013-04-26 21:04:00,
2013-04-26 16:05:00,59.7,51.4,30.03,ENE,67,2.0,3.0,74,0.00,,,0.06,Wunderground v.1.15,2013-04-26 21:05:00,
2013-04-26 16:08:00,59.7,51.0,30.03,NW,321,0.0,4.0,73,0.00,,,0.06,Wunderground v.1.15,2013-04-26 21:08:00,
2013-04-26 16:10:00,59.8,50.8,30.03,East,79,0.0,4.0,72,0.00,,,0.06,Wunderground v.1.15,2013-04-26 21:10:00,
2013-04-26 16:11:00,59.8,50.8,30.03,ENE,78,1.0,4.0,72,0.00,,,0.06,Wunderground v.1.15,2013-04-26 21:11:00,
2013-04-26 16:13:00,59.8,50.8,30.03,East,86,0.0,1.0,72,0.00,,,0.06,Wunderground v.1.15,2013-04-26 21:13:00,
2013-04-26 16:14:00,59.8,50.8,30.03,East,86,0.0,1.0,72,0.00,,,0.06,Wunderground v.1.15,2013-04-26 21:14:00,
2013-04-26 16:15:00,59.8,50.4,30.03,East,86,0.0,1.0,71,0.00,,,0.06,Wunderground v.1.15,2013-04-26 21:15:00,
2013-04-26 16:16:00,59.9,51.2,30.03,East,86,0.0,1.0,73,0.00,,,0.06,Wunderground v.1.15,2013-04-26 21:16:00,
2013-04-26 16:19:00,60.0,51.3,30.03,East,86,0.0,1.0,73,0.00,,,0.06,Wunderground v.1.15,2013-04-26 21:19:00,
2013-04-26 16:20:00,60.0,51.3,30.03,East,86,0.0,1.0,73,0.00,,,0.06,Wunderground v.1.15,2013-04-26 21:20:00,
2013-04-26 16:22:00,60.2,51.5,30.04,NW,314,0.0,1.0,73,0.00,,,0.06,Wunderground v.1.15,2013-04-26 21:22:00,
2013-04-26 16:23:00,60.2,50.8,30.03,ESE,118,0.0,0.0,71,0.00,,,0.06,Wunderground v.1.15,2013-04-26 21:23:00,
2013-04-26 16:24:00,60.2,50.8,30.03,ESE,116,0.0,0.0,71,0.00,,,0.06,Wunderground v.1.15,2013-04-26 21:24:00,
2013-04-26 16:25:00,60.3,50.9,30.03,ESE,111,0.0,0.0,71,0.00,,,0.06,Wunderground v.1.15,2013-04-26 21:25:00,
2013-04-26 16:27:00,60.3,50.5,30.03,ESE,119,0.0,2.0,70,0.00,,,0.06,Wunderground v.1.15,2013-04-26 21:27:00,
2013-04-26 16:29:00,60.3,50.1,30.03,South,188,0.0,2.0,69,0.00,,,0.06,Wunderground v.1.15,2013-04-26 21:29:00,
2013-04-26 16:30:00,60.3,50.1,30.03,NE,54,0.0,5.0,69,0.00,,,0.06,Wunderground v.1.15,2013-04-26 21:30:00,
2013-04-26 16:32:00,60.4,50.6,30.02,South,172,0.0,5.0,70,0.00,,,0.06,Wunderground v.1.15,2013-04-26 21:32:00,
2013-04-26 16:34:00,60.4,50.6,30.02,South,185,0.0,3.0,70,0.00,,,0.06,Wunderground v.1.15,2013-04-26 21:34:00,
2013-04-26 16:35:00,60.4,50.2,30.02,SSE,167,4.0,4.0,69,0.00,,,0.06,Wunderground v.1.15,2013-04-26 21:35:00,
2013-04-26 16:38:00,60.4,50.2,30.02,SSE,159,0.0,4.0,69,0.00,,,0.06,Wunderground v.1.15,2013-04-26 21:38:00,
2013-04-26 16:39:00,60.4,50.6,30.01,SSE,167,0.0,4.0,70,0.00,,,0.06,Wunderground v.1.15,2013-04-26 21:39:00,
2013-04-26 16:40:00,60.4,50.6,30.01,South,187,0.0,4.0,70,0.00,,,0.06,Wunderground v.1.15,2013-04-26 21:40:00,
2013-04-26 16:41:00,60.4,50.6,30.00,SSW,193,4.0,6.0,70,0.00,,,0.06,Wunderground v.1.15,2013-04-26 21:41:00,
2013-04-26 16:43:00,60.4,50.2,30.00,East,97,0.0,1.0,69,0.00,,,0.06,Wunderground v.1.15,2013-04-26 21:43:00,
2013-04-26 16:44:00,60.4,50.6,30.01,ESE,117,1.0,6.0,70,0.00,,,0.06,Wunderground v.1.15,2013-04-26 21:44:00,
2013-04-26 16:45:00,60.4,50.6,30.01,East,96,0.0,6.0,70,0.00,,,0.06,Wunderground v.1.15,2013-04-26 21:45:00,
2013-04-26 16:46:00,60.5,50.7,30.01,ENE,65,0.0,6.0,70,0.00,,,0.06,Wunderground v.1.15,2013-04-26 21:46:00,
2013-04-26 16:47:00,60.5,50.7,30.01,NE,39,0.0,6.0,70,0.00,,,0.06,Wunderground v.1.15,2013-04-26 21:47:00,
2013-04-26 16:48:00,60.5,51.0,30.01,SSE,151,0.0,6.0,71,0.00,,,0.06,Wunderground v.1.15,2013-04-26 21:48:00,
2013-04-26 16:49:00,60.6,51.1,30.01,SSE,154,0.0,6.0,71,0.00,,,0.06,Wunderground v.1.15,2013-04-26 21:49:00,
2013-04-26 16:50:00,60.6,50.8,30.01,South,190,3.0,6.0,70,0.00,,,0.06,Wunderground v.1.15,2013-04-26 21:50:00,
2013-04-26 16:51:00,60.6,51.1,30.01,South,191,0.0,6.0,71,0.00,,,0.06,Wunderground v.1.15,2013-04-26 21:51:00,
2013-04-26 16:52:00,60.7,51.2,30.01,ESE,107,0.0,6.0,71,0.00,,,0.06,Wunderground v.1.15,2013-04-26 21:52:00,
2013-04-26 16:55:00,60.6,50.8,30.01,South,187,1.0,3.0,70,0.00,,,0.06,Wunderground v.1.15,2013-04-26 21:55:00,
2013-04-26 16:56:00,60.6,50.4,30.00,South,186,0.0,3.0,69,0.00,,,0.06,Wunderground v.1.15,2013-04-26 21:56:00,
2013-04-26 16:58:00,60.5,50.7,30.01,South,180,4.0,5.0,70,0.00,,,0.06,Wunderground v.1.15,2013-04-26 21:58:00,
2013-04-26 17:00:00,60.4,50.6,30.01,SE,139,0.0,5.0,70,0.00,,,0.06,Wunderground v.1.15,2013-04-26 22:00:00,
2013-04-26 17:01:00,60.4,50.6,30.01,South,175,3.0,5.0,70,0.00,,,0.06,Wunderground v.1.15,2013-04-26 22:01:00,
2013-04-26 17:03:00,60.3,50.5,30.01,South,183,6.0,6.0,70,0.00,,,0.06,Wunderground v.1.15,2013-04-26 22:03:00,
2013-04-26 17:05:00,60.1,50.3,30.00,SSW,200,0.0,7.0,70,0.00,,,0.06,Wunderground v.1.15,2013-04-26 22:05:00,
2013-04-26 17:06:00,60.1,50.3,30.00,SSW,196,0.0,7.0,70,0.00,,,0.06,Wunderground v.1.15,2013-04-26 22:06:00,
2013-04-26 17:08:00,59.9,50.1,30.00,SSW,202,3.0,7.0,70,0.00,,,0.06,Wunderground v.1.15,2013-04-26 22:08:00,
2013-04-26 17:11:00,59.8,50.4,30.00,ESE,118,0.0,7.0,71,0.00,,,0.06,Wunderground v.1.15,2013-04-26 22:11:00,
2013-04-26 17:12:00,59.8,50.4,30.00,NNW,346,0.0,7.0,71,0.00,,,0.06,Wunderground v.1.15,2013-04-26 22:12:00,
2013-04-26 17:13:00,59.8,50.4,29.99,NW,306,0.0,2.0,71,0.00,,,0.06,Wunderground v.1.15,2013-04-26 22:13:00,
2013-04-26 17:16:00,59.7,50.7,29.99,SSW,202,2.0,6.0,72,0.00,,,0.06,Wunderground v.1.15,2013-04-26 22:16:00,
2013-04-26 17:17:00,59.7,49.9,29.99,SSW,199,5.0,6.0,70,0.00,,,0.06,Wunderground v.1.15,2013-04-26 22:17:00,
2013-04-26 17:18:00,59.6,50.2,29.99,SSE,160,0.0,6.0,71,0.00,,,0.06,Wunderground v.1.15,2013-04-26 22:18:00,
2013-04-26 17:21:00,59.7,50.3,29.99,South,182,0.0,6.0,71,0.00,,,0.06,Wunderground v.1.15,2013-04-26 22:21:00,
2013-04-26 17:22:00,59.7,50.3,29.99,SSW,200,3.0,6.0,71,0.00,,,0.06,Wunderground v.1.15,2013-04-26 22:22:00,
2013-04-26 17:23:00,59.8,50.4,29.99,South,178,3.0,3.0,71,0.00,,,0.06,Wunderground v.1.15,2013-04-26 22:23:00,
2013-04-26 17:26:00,59.8,50.8,29.99,South,180,0.0,5.0,72,0.00,,,0.06,Wunderground v.1.15,2013-04-26 22:26:00,
2013-04-26 17:27:00,59.8,50.4,29.99,ENE,69,0.0,5.0,71,0.00,,,0.06,Wunderground v.1.15,2013-04-26 22:27:00,
2013-04-26 17:28:00,59.8,50.4,29.99,ENE,68,0.0,5.0,71,0.00,,,0.06,Wunderground v.1.15,2013-04-26 22:28:00,
2013-04-26 17:29:00,59.8,50.8,29.99,ENE,70,0.0,5.0,72,0.00,,,0.06,Wunderground v.1.15,2013-04-26 22:29:00,
2013-04-26 17:31:00,59.9,50.5,29.99,South,176,0.0,5.0,71,0.00,,,0.06,Wunderground v.1.15,2013-04-26 22:31:00,
2013-04-26 17:32:00,59.9,50.5,29.99,SSW,194,3.0,5.0,71,0.00,,,0.06,Wunderground v.1.15,2013-04-26 22:32:00,
2013-04-26 17:33:00,59.9,50.5,30.00,South,190,2.0,6.0,71,0.00,,,0.06,Wunderground v.1.15,2013-04-26 22:33:00,
2013-04-26 17:34:00,59.9,50.5,29.99,SSW,192,2.0,4.0,71,0.00,,,0.06,Wunderground v.1.15,2013-04-26 22:34:00,
2013-04-26 17:37:00,60.0,50.6,29.99,SSW,193,4.0,6.0,71,0.00,,,0.06,Wunderground v.1.15,2013-04-26 22:37:00,
2013-04-26 17:38:00,60.0,50.6,29.99,SSW,194,0.0,6.0,71,0.00,,,0.06,Wunderground v.1.15,2013-04-26 22:38:00,
2013-04-26 17:39:00,60.0,50.6,29.99,South,191,4.0,6.0,71,0.00,,,0.06,Wunderground v.1.15,2013-04-26 22:39:00,
2013-04-26 17:40:00,59.9,49.7,29.99,South,173,6.0,10.0,69,0.00,,,0.06,Wunderground v.1.15,2013-04-26 22:40:00,
2013-04-26 17:43:00,59.9,49.7,29.99,South,190,3.0,4.0,69,0.00,,,0.06,Wunderground v.1.15,2013-04-26 22:43:00,
2013-04-26 17:44:00,59.9,49.7,29.99,South,190,0.0,4.0,69,0.00,,,0.06,Wunderground v.1.15,2013-04-26 22:44:00,
2013-04-26 17:47:00,59.8,50.0,29.99,SSW,198,0.0,4.0,70,0.00,,,0.06,Wunderground v.1.15,2013-04-26 22:47:00,
2013-04-26 17:49:00,59.8,49.6,29.99,SSW,196,5.0,6.0,69,0.00,,,0.06,Wunderground v.1.15,2013-04-26 22:49:00,
2013-04-26 17:50:00,59.8,49.2,29.99,South,190,2.0,6.0,68,0.00,,,0.06,Wunderground v.1.15,2013-04-26 22:50:00,
2013-04-26 17:52:00,59.7,49.5,29.99,SSE,152,0.0,6.0,69,0.00,,,0.06,Wunderground v.1.15,2013-04-26 22:52:00,
2013-04-26 17:54:00,59.7,49.5,29.99,SSW,193,0.0,4.0,69,0.00,,,0.06,Wunderground v.1.15,2013-04-26 22:54:00,
2013-04-26 17:55:00,59.7,49.5,29.98,SSW,192,0.0,4.0,69,0.00,,,0.06,Wunderground v.1.15,2013-04-26 22:55:00,
2013-04-26 17:56:00,59.7,49.1,29.99,SSW,196,0.0,5.0,68,0.00,,,0.06,Wunderground v.1.15,2013-04-26 22:56:00,
2013-04-26 17:58:00,59.7,48.7,29.99,South,184,0.0,5.0,67,0.00,,,0.06,Wunderground v.1.15,2013-04-26 22:58:00,
2013-04-26 17:59:00,59.7,49.1,29.99,South,184,0.0,5.0,68,0.00,,,0.06,Wunderground v.1.15,2013-04-26 22:59:00,
2013-04-26 18:00:00,59.7,49.1,29.99,South,184,1.0,5.0,68,0.00,,,0.06,Wunderground v.1.15,2013-04-26 23:00:00,
2013-04-26 18:01:00,59.7,49.1,29.99,South,182,4.0,5.0,68,0.00,,,0.06,Wunderground v.1.15,2013-04-26 23:01:00,
2013-04-26 18:02:00,59.7,49.1,29.99,South,187,4.0,5.0,68,0.00,,,0.06,Wunderground v.1.15,2013-04-26 23:02:00,
2013-04-26 18:03:00,59.6,49.0,29.99,South,186,0.0,5.0,68,0.00,,,0.06,Wunderground v.1.15,2013-04-26 23:03:00,
2013-04-26 18:05:00,59.6,48.6,30.00,SSE,163,0.0,3.0,67,0.00,,,0.06,Wunderground v.1.15,2013-04-26 23:05:00,
2013-04-26 18:06:00,59.7,49.1,30.00,SSE,167,0.0,3.0,68,0.00,,,0.06,Wunderground v.1.15,2013-04-26 23:06:00,
2013-04-26 18:07:00,59.7,49.1,30.00,SSE,163,0.0,3.0,68,0.00,,,0.06,Wunderground v.1.15,2013-04-26 23:07:00,
2013-04-26 18:08:00,59.7,48.7,30.00,ENE,59,0.0,3.0,67,0.00,,,0.06,Wunderground v.1.15,2013-04-26 23:08:00,
2013-04-26 18:10:00,59.7,49.1,30.00,SSW,193,0.0,3.0,68,0.00,,,0.06,Wunderground v.1.15,2013-04-26 23:10:00,
2013-04-26 18:11:00,59.7,49.1,30.00,SSE,148,0.0,3.0,68,0.00,,,0.06,Wunderground v.1.15,2013-04-26 23:11:00,
2013-04-26 18:12:00,59.7,48.7,30.00,SSE,148,0.0,3.0,67,0.00,,,0.06,Wunderground v.1.15,2013-04-26 23:12:00,
2013-04-26 18:14:00,59.7,49.5,30.01,South,184,0.0,0.0,69,0.00,,,0.06,Wunderground v.1.15,2013-04-26 23:14:00,
2013-04-26 18:15:00,59.7,49.1,30.01,South,183,0.0,0.0,68,0.00,,,0.06,Wunderground v.1.15,2013-04-26 23:15:00,
2013-04-26 18:16:00,59.7,49.1,30.01,South,183,0.0,0.0,68,0.00,,,0.06,Wunderground v.1.15,2013-04-26 23:16:00,
2013-04-26 18:17:00,59.7,48.7,30.01,South,188,0.0,4.0,67,0.00,,,0.06,Wunderground v.1.15,2013-04-26 23:17:00,
2013-04-26 18:18:00,59.7,48.7,30.01,South,188,0.0,4.0,67,0.00,,,0.06,Wunderground v.1.15,2013-04-26 23:18:00,
2013-04-26 18:20:00,59.7,49.1,30.01,South,188,0.0,4.0,68,0.00,,,0.06,Wunderground v.1.15,2013-04-26 23:20:00,
2013-04-26 18:21:00,59.7,49.1,30.01,South,188,0.0,4.0,68,0.00,,,0.06,Wunderground v.1.15,2013-04-26 23:21:00,
2013-04-26 18:22:00,59.7,49.1,30.01,South,187,0.0,4.0,68,0.00,,,0.06,Wunderground v.1.15,2013-04-26 23:22:00,
2013-04-26 18:23:00,59.7,49.1,30.00,South,182,0.0,0.0,68,0.00,,,0.06,Wunderground v.1.15,2013-04-26 23:23:00,
2013-04-26 18:25:00,59.7,48.7,30.00,South,182,0.0,0.0,67,0.00,,,0.06,Wunderground v.1.15,2013-04-26 23:25:00,
2013-04-26 18:26:00,59.7,48.7,30.01,South,182,0.0,0.0,67,0.00,,,0.06,Wunderground v.1.15,2013-04-26 23:26:00,
2013-04-26 18:27:00,59.7,48.7,30.01,SSW,210,0.0,0.0,67,0.00,,,0.06,Wunderground v.1.15,2013-04-26 23:27:00,
2013-04-26 18:29:00,59.7,48.7,30.00,SW,217,0.0,0.0,67,0.00,,,0.06,Wunderground v.1.15,2013-04-26 23:29:00,
2013-04-26 18:30:00,59.7,48.7,30.00,SSW,196,0.0,0.0,67,0.00,,,0.06,Wunderground v.1.15,2013-04-26 23:30:00,
2013-04-26 18:32:00,59.7,48.7,30.00,SSW,196,0.0,0.0,67,0.00,,,0.06,Wunderground v.1.15,2013-04-26 23:32:00,
2013-04-26 18:33:00,59.7,48.7,30.00,SSW,211,0.0,0.0,67,0.00,,,0.06,Wunderground v.1.15,2013-04-26 23:33:00,
2013-04-26 18:34:00,59.7,48.3,30.00,SE,146,0.0,0.0,66,0.00,,,0.06,Wunderground v.1.15,2013-04-26 23:34:00,
2013-04-26 18:35:00,59.7,48.7,30.00,SE,146,0.0,0.0,67,0.00,,,0.06,Wunderground v.1.15,2013-04-26 23:35:00,
2013-04-26 18:37:00,59.6,48.6,30.00,NNE,24,0.0,0.0,67,0.00,,,0.06,Wunderground v.1.15,2013-04-26 23:37:00,
2013-04-26 18:39:00,59.6,48.6,30.01,NNE,24,0.0,0.0,67,0.00,,,0.06,Wunderground v.1.15,2013-04-26 23:39:00,
2013-04-26 18:40:00,59.6,48.2,30.01,NNE,33,0.0,0.0,66,0.00,,,0.06,Wunderground v.1.15,2013-04-26 23:40:00,
2013-04-26 18:41:00,59.6,48.2,30.01,NNE,33,0.0,0.0,66,0.00,,,0.06,Wunderground v.1.15,2013-04-26 23:41:00,
2013-04-26 18:42:00,59.6,48.2,30.00,NE,34,0.0,0.0,66,0.00,,,0.06,Wunderground v.1.15,2013-04-26 23:42:00,
2013-04-26 18:44:00,59.6,48.2,30.00,ENE,69,0.0,1.0,66,0.00,,,0.06,Wunderground v.1.15,2013-04-26 23:44:00,
2013-04-26 18:46:00,59.6,48.2,30.00,East,84,0.0,1.0,66,0.00,,,0.06,Wunderground v.1.15,2013-04-26 23:46:00,
2013-04-26 18:47:00,59.6,48.2,30.00,SSE,159,0.0,1.0,66,0.00,,,0.06,Wunderground v.1.15,2013-04-26 23:47:00,
2013-04-26 18:49:00,59.6,48.2,30.00,SE,142,0.0,1.0,66,0.00,,,0.06,Wunderground v.1.15,2013-04-26 23:49:00,
2013-04-26 18:50:00,59.6,48.2,30.00,NW,319,1.0,4.0,66,0.00,,,0.06,Wunderground v.1.15,2013-04-26 23:50:00,
2013-04-26 18:51:00,59.6,47.8,30.00,ESE,112,0.0,4.0,65,0.00,,,0.06,Wunderground v.1.15,2013-04-26 23:51:00,
2013-04-26 18:53:00,59.5,48.1,30.01,ESE,107,0.0,0.0,66,0.00,,,0.06,Wunderground v.1.15,2013-04-26 23:53:00,
2013-04-26 19:05:00,59.4,48.0,30.00,SE,146,0.0,0.0,66,0.00,,,0.06,Wunderground v.1.15,2013-04-27 00:05:00,
2013-04-26 19:06:00,59.4,48.4,30.00,SE,146,0.0,0.0,67,0.00,,,0.06,Wunderground v.1.15,2013-04-27 00:06:00,
2013-04-26 19:07:00,59.4,48.0,30.00,SE,140,0.0,0.0,66,0.00,,,0.06,Wunderground v.1.15,2013-04-27 00:07:00,
2013-04-26 19:10:00,59.3,48.3,30.01,ENE,73,0.0,3.0,67,0.00,,,0.06,Wunderground v.1.15,2013-04-27 00:10:00,
2013-04-26 19:11:00,59.2,48.2,30.01,ENE,73,0.0,3.0,67,0.00,,,0.06,Wunderground v.1.15,2013-04-27 00:11:00,
2013-04-26 19:12:00,59.2,48.2,30.01,ENE,73,0.0,3.0,67,0.00,,,0.06,Wunderground v.1.15,2013-04-27 00:12:00,
2013-04-26 19:15:00,59.0,48.8,30.01,SSE,155,0.0,0.0,69,0.00,,,0.06,Wunderground v.1.15,2013-04-27 00:15:00,
2013-04-26 19:16:00,59.0,48.8,30.01,North,5,0.0,0.0,69,0.00,,,0.06,Wunderground v.1.15,2013-04-27 00:16:00,
2013-04-26 19:17:00,59.0,49.2,30.01,North,5,0.0,0.0,70,0.00,,,0.06,Wunderground v.1.15,2013-04-27 00:17:00,
2013-04-26 19:21:00,59.0,49.6,30.01,North,355,0.0,0.0,71,0.00,,,0.06,Wunderground v.1.15,2013-04-27 00:21:00,
2013-04-26 19:22:00,59.0,49.6,30.01,NNW,348,0.0,0.0,71,0.00,,,0.06,Wunderground v.1.15,2013-04-27 00:22:00,
2013-04-26 19:23:00,59.0,49.6,30.01,NNW,348,0.0,0.0,71,0.00,,,0.06,Wunderground v.1.15,2013-04-27 00:23:00,
2013-04-26 19:24:00,58.8,50.2,30.00,NNW,348,0.0,0.0,73,0.00,,,0.06,Wunderground v.1.15,2013-04-27 00:24:00,
2013-04-26 19:27:00,58.5,49.9,30.00,East,96,0.0,5.0,73,0.00,,,0.06,Wunderground v.1.15,2013-04-27 00:27:00,
2013-04-26 19:28:00,58.5,49.9,30.01,East,96,0.0,5.0,73,0.00,,,0.06,Wunderground v.1.15,2013-04-27 00:28:00,
2013-04-26 19:29:00,58.4,49.8,30.00,North,360,2.0,5.0,73,0.00,,,0.06,Wunderground v.1.15,2013-04-27 00:29:00,
2013-04-26 19:32:00,58.2,49.6,30.01,SSE,161,0.0,5.0,73,0.00,,,0.06,Wunderground v.1.15,2013-04-27 00:32:00,
2013-04-26 19:33:00,58.2,49.6,30.01,North,360,0.0,2.0,73,0.00,,,0.06,Wunderground v.1.15,2013-04-27 00:33:00,
2013-04-26 19:34:00,58.1,49.5,30.01,North,10,0.0,2.0,73,0.00,,,0.06,Wunderground v.1.15,2013-04-27 00:34:00,
2013-04-26 19:37:00,58.0,49.4,30.01,East,92,0.0,5.0,73,0.00,,,0.06,Wunderground v.1.15,2013-04-27 00:37:00,
2013-04-26 19:39:00,58.0,49.8,30.01,East,92,0.0,5.0,74,0.00,,,0.06,Wunderground v.1.15,2013-04-27 00:39:00,
2013-04-26 19:40:00,58.0,49.8,30.01,East,91,3.0,5.0,74,0.00,,,0.06,Wunderground v.1.15,2013-04-27 00:40:00,
2013-04-26 19:42:00,57.9,49.7,30.00,ESE,116,0.0,5.0,74,0.00,,,0.06,Wunderground v.1.15,2013-04-27 00:42:00,
2013-04-26 19:44:00,57.9,49.7,30.00,WNW,290,3.0,3.0,74,0.00,,,0.06,Wunderground v.1.15,2013-04-27 00:44:00,
2013-04-26 19:45:00,57.9,49.7,30.00,WNW,300,0.0,3.0,74,0.00,,,0.06,Wunderground v.1.15,2013-04-27 00:45:00,
2013-04-26 19:48:00,57.8,49.9,30.00,West,259,0.0,4.0,75,0.00,,,0.06,Wunderground v.1.15,2013-04-27 00:48:00,
2013-04-26 19:50:00,57.8,49.6,30.01,NNW,337,0.0,4.0,74,0.00,,,0.06,Wunderground v.1.15,2013-04-27 00:50:00,
2013-04-26 19:51:00,57.8,49.6,30.01,NNW,337,0.0,4.0,74,0.00,,,0.06,Wunderground v.1.15,2013-04-27 00:51:00,
2013-04-26 19:55:00,57.7,49.5,30.00,ESE,102,1.0,3.0,74,0.00,,,0.06,Wunderground v.1.15,2013-04-27 00:55:00,
2013-04-26 19:56:00,57.7,49.5,30.00,East,94,0.0,3.0,74,0.00,,,0.06,Wunderground v.1.15,2013-04-27 00:56:00,
2013-04-26 20:01:00,57.6,49.7,30.00,South,172,0.0,3.0,75,0.00,,,0.06,Wunderground v.1.15,2013-04-27 01:01:00,
2013-04-26 20:02:00,57.6,49.4,30.00,NW,324,0.0,3.0,74,0.00,,,0.06,Wunderground v.1.15,2013-04-27 01:02:00,
2013-04-26 20:06:00,57.6,49.4,30.00,NNW,346,0.0,7.0,74,0.00,,,0.06,Wunderground v.1.15,2013-04-27 01:06:00,
2013-04-26 20:07:00,57.5,49.3,30.00,ESE,109,1.0,7.0,74,0.00,,,0.06,Wunderground v.1.15,2013-04-27 01:07:00,
2013-04-26 20:08:00,57.5,49.3,30.00,East,80,0.0,7.0,74,0.00,,,0.06,Wunderground v.1.15,2013-04-27 01:08:00,
2013-04-26 20:11:00,57.5,49.3,30.00,East,84,5.0,7.0,74,0.00,,,0.06,Wunderground v.1.15,2013-04-27 01:11:00,
2013-04-26 20:12:00,57.5,49.3,30.00,ENE,74,0.0,7.0,74,0.00,,,0.06,Wunderground v.1.15,2013-04-27 01:12:00,
2013-04-26 20:13:00,57.5,49.3,30.00,North,355,4.0,5.0,74,0.00,,,0.06,Wunderground v.1.15,2013-04-27 01:13:00,
2013-04-26 20:16:00,57.5,49.3,30.00,South,173,0.0,5.0,74,0.00,,,0.06,Wunderground v.1.15,2013-04-27 01:16:00,
2013-04-26 20:17:00,57.5,49.6,30.00,South,173,0.0,5.0,75,0.00,,,0.06,Wunderground v.1.15,2013-04-27 01:17:00,
2013-04-26 20:18:00,57.5,49.6,30.00,South,173,0.0,5.0,75,0.00,,,0.06,Wunderground v.1.15,2013-04-27 01:18:00,
2013-04-26 20:22:00,57.5,49.6,30.00,NNW,336,0.0,5.0,75,0.00,,,0.06,Wunderground v.1.15,2013-04-27 01:22:00,
2013-04-26 20:23:00,57.4,49.5,30.00,NNW,336,0.0,0.0,75,0.00,,,0.06,Wunderground v.1.15,2013-04-27 01:23:00,
2013-04-26 20:27:00,57.4,49.5,30.00,NE,38,0.0,2.0,75,0.00,,,0.06,Wunderground v.1.15,2013-04-27 01:27:00,
2013-04-26 20:28:00,57.4,49.5,30.00,NE,40,0.0,2.0,75,0.00,,,0.06,Wunderground v.1.15,2013-04-27 01:28:00,
2013-04-26 20:29:00,57.4,49.5,30.00,South,182,0.0,2.0,75,0.00,,,0.06,Wunderground v.1.15,2013-04-27 01:29:00,
2013-04-26 20:30:00,57.4,49.5,30.00,South,181,0.0,2.0,75,0.00,,,0.06,Wunderground v.1.15,2013-04-27 01:30:00,
2013-04-26 20:33:00,57.4,49.5,30.00,ESE,105,2.0,2.0,75,0.00,,,0.06,Wunderground v.1.15,2013-04-27 01:33:00,
2013-04-26 20:34:00,57.4,49.5,30.00,ESE,105,0.0,2.0,75,0.00,,,0.06,Wunderground v.1.15,2013-04-27 01:34:00,
2013-04-26 20:35:00,57.4,49.5,30.00,South,189,5.0,5.0,75,0.00,,,0.06,Wunderground v.1.15,2013-04-27 01:35:00,
2013-04-26 20:38:00,57.4,49.5,30.00,SE,128,0.0,5.0,75,0.00,,,0.06,Wunderground v.1.15,2013-04-27 01:38:00,
2013-04-26 20:39:00,57.4,49.5,30.00,SE,136,2.0,5.0,75,0.00,,,0.06,Wunderground v.1.15,2013-04-27 01:39:00,
2013-04-26 20:40:00,57.4,49.5,30.00,ESE,120,0.0,5.0,75,0.00,,,0.06,Wunderground v.1.15,2013-04-27 01:40:00,
2013-04-26 20:43:00,57.3,49.8,30.00,SE,129,0.0,1.0,76,0.00,,,0.06,Wunderground v.1.15,2013-04-27 01:43:00,
2013-04-26 20:44:00,57.4,49.5,30.00,NNE,29,0.0,2.0,75,0.00,,,0.06,Wunderground v.1.15,2013-04-27 01:44:00,
2013-04-26 20:45:00,57.3,49.4,30.00,ENE,70,0.0,2.0,75,0.00,,,0.06,Wunderground v.1.15,2013-04-27 01:45:00,
2013-04-26 20:49:00,57.3,49.8,30.01,East,101,0.0,4.0,76,0.00,,,0.06,Wunderground v.1.15,2013-04-27 01:49:00,
2013-04-26 20:50:00,57.3,49.8,30.01,ESE,118,0.0,4.0,76,0.00,,,0.06,Wunderground v.1.15,2013-04-27 01:50:00,
2013-04-26 20:51:00,57.3,49.8,30.01,ESE,118,0.0,4.0,76,0.00,,,0.06,Wunderground v.1.15,2013-04-27 01:51:00,
2013-04-26 20:54:00,57.3,49.8,30.01,South,190,0.0,0.0,76,0.00,,,0.06,Wunderground v.1.15,2013-04-27 01:54:00,
2013-04-26 20:55:00,57.3,49.8,30.01,NNW,327,4.0,4.0,76,0.00,,,0.06,Wunderground v.1.15,2013-04-27 01:55:00,
2013-04-26 20:56:00,57.3,49.8,30.01,South,171,0.0,4.0,76,0.00,,,0.06,Wunderground v.1.15,2013-04-27 01:56:00,
2013-04-26 21:00:00,57.2,49.7,30.01,ENE,67,0.0,4.0,76,0.00,,,0.06,Wunderground v.1.15,2013-04-27 02:00:00,
2013-04-26 21:01:00,57.2,50.1,30.00,SSE,166,2.0,4.0,77,0.00,,,0.06,Wunderground v.1.15,2013-04-27 02:01:00,
2013-04-26 21:05:00,57.2,50.1,30.00,SSW,192,0.0,5.0,77,0.00,,,0.06,Wunderground v.1.15,2013-04-27 02:05:00,
2013-04-26 21:06:00,57.2,50.1,30.00,SSW,193,0.0,5.0,77,0.00,,,0.06,Wunderground v.1.15,2013-04-27 02:06:00,
2013-04-26 21:07:00,57.1,50.0,30.00,SSW,192,0.0,5.0,77,0.00,,,0.06,Wunderground v.1.15,2013-04-27 02:07:00,
2013-04-26 21:10:00,57.1,50.0,30.00,South,186,1.0,5.0,77,0.00,,,0.06,Wunderground v.1.15,2013-04-27 02:10:00,
2013-04-26 21:11:00,57.1,50.0,30.00,East,96,0.0,5.0,77,0.00,,,0.06,Wunderground v.1.15,2013-04-27 02:11:00,
2013-04-26 21:13:00,57.1,50.0,30.00,NE,53,0.0,1.0,77,0.00,,,0.06,Wunderground v.1.15,2013-04-27 02:13:00,
2013-04-26 21:15:00,57.1,50.0,30.00,East,87,0.0,5.0,77,0.00,,,0.06,Wunderground v.1.15,2013-04-27 02:15:00,
2013-04-26 21:16:00,57.1,50.0,30.00,South,187,1.0,5.0,77,0.00,,,0.06,Wunderground v.1.15,2013-04-27 02:16:00,
2013-04-26 21:17:00,57.1,50.0,30.00,South,187,3.0,5.0,77,0.00,,,0.06,Wunderground v.1.15,2013-04-27 02:17:00,
2013-04-26 21:19:00,57.1,50.0,30.00,South,187,0.0,5.0,77,0.00,,,0.06,Wunderground v.1.15,2013-04-27 02:19:00,
2013-04-26 21:20:00,57.1,50.0,30.00,SSW,194,3.0,5.0,77,0.00,,,0.06,Wunderground v.1.15,2013-04-27 02:20:00,
2013-04-26 21:21:00,57.1,50.0,30.00,SSW,198,4.0,5.0,77,0.00,,,0.06,Wunderground v.1.15,2013-04-27 02:21:00,
2013-04-26 21:22:00,57.1,50.0,30.00,South,188,0.0,5.0,77,0.00,,,0.06,Wunderground v.1.15,2013-04-27 02:22:00,
2013-04-26 21:23:00,57.1,50.0,30.00,SSW,195,4.0,5.0,77,0.00,,,0.06,Wunderground v.1.15,2013-04-27 02:23:00,
2013-04-26 21:25:00,57.1,50.0,30.01,South,183,0.0,6.0,77,0.00,,,0.06,Wunderground v.1.15,2013-04-27 02:25:00,
2013-04-26 21:26:00,57.1,50.0,30.01,South,190,3.0,7.0,77,0.00,,,0.06,Wunderground v.1.15,2013-04-27 02:26:00,
2013-04-26 21:27:00,57.1,50.0,30.01,South,184,0.0,7.0,77,0.00,,,0.06,Wunderground v.1.15,2013-04-27 02:27:00,
2013-04-26 21:28:00,57.1,50.0,30.01,South,184,0.0,7.0,77,0.00,,,0.06,Wunderground v.1.15,2013-04-27 02:28:00,
2013-04-26 21:30:00,57.1,50.0,30.01,SE,135,0.0,7.0,77,0.00,,,0.06,Wunderground v.1.15,2013-04-27 02:30:00,
2013-04-26 21:32:00,57.1,49.6,30.01,SSE,150,0.0,7.0,76,0.00,,,0.06,Wunderground v.1.15,2013-04-27 02:32:00,
2013-04-26 21:33:00,57.1,50.0,30.01,South,178,0.0,2.0,77,0.00,,,0.06,Wunderground v.1.15,2013-04-27 02:33:00,
2013-04-26 21:34:00,57.1,50.0,30.01,SSW,199,2.0,5.0,77,0.00,,,0.06,Wunderground v.1.15,2013-04-27 02:34:00,
2013-04-26 21:35:00,57.1,50.0,30.00,South,183,0.0,5.0,77,0.00,,,0.06,Wunderground v.1.15,2013-04-27 02:35:00,
2013-04-26 21:37:00,57.1,50.0,30.00,WSW,257,0.0,5.0,77,0.00,,,0.06,Wunderground v.1.15,2013-04-27 02:37:00,
2013-04-26 21:38:00,57.1,50.0,30.00,WSW,237,0.0,5.0,77,0.00,,,0.06,Wunderground v.1.15,2013-04-27 02:38:00,
2013-04-26 21:39:00,57.1,50.0,30.00,ENE,76,2.0,5.0,77,0.00,,,0.06,Wunderground v.1.15,2013-04-27 02:39:00,
2013-04-26 21:40:00,57.1,50.0,30.00,NE,41,0.0,5.0,77,0.00,,,0.06,Wunderground v.1.15,2013-04-27 02:40:00,
2013-04-26 21:42:00,57.1,49.6,30.00,North,360,0.0,6.0,76,0.00,,,0.06,Wunderground v.1.15,2013-04-27 02:42:00,
2013-04-26 21:44:00,57.1,50.0,30.00,ENE,63,0.0,4.0,77,0.00,,,0.06,Wunderground v.1.15,2013-04-27 02:44:00,
2013-04-26 21:45:00,57.1,50.0,30.00,East,88,0.0,4.0,77,0.00,,,0.06,Wunderground v.1.15,2013-04-27 02:45:00,
2013-04-26 21:46:00,57.1,49.6,30.00,NNW,344,0.0,4.0,76,0.00,,,0.06,Wunderground v.1.15,2013-04-27 02:46:00,
2013-04-26 21:48:00,57.1,49.6,30.00,SSE,152,0.0,4.0,76,0.00,,,0.06,Wunderground v.1.15,2013-04-27 02:48:00,
2013-04-26 21:49:00,57.1,49.6,30.01,West,268,3.0,4.0,76,0.00,,,0.06,Wunderground v.1.15,2013-04-27 02:49:00,
2013-04-26 21:50:00,57.1,50.0,30.01,SSW,206,0.0,5.0,77,0.00,,,0.06,Wunderground v.1.15,2013-04-27 02:50:00,
2013-04-26 21:51:00,57.1,50.0,30.01,SSW,206,0.0,5.0,77,0.00,,,0.06,Wunderground v.1.15,2013-04-27 02:51:00,
2013-04-26 21:54:00,57.1,50.0,30.01,SSW,207,0.0,1.0,77,0.00,,,0.06,Wunderground v.1.15,2013-04-27 02:54:00,
2013-04-26 21:55:00,57.0,49.9,30.01,South,175,0.0,3.0,77,0.00,,,0.06,Wunderground v.1.15,2013-04-27 02:55:00,
2013-04-26 21:56:00,57.0,49.9,30.01,South,175,0.0,3.0,77,0.00,,,0.06,Wunderground v.1.15,2013-04-27 02:56:00,
2013-04-26 21:59:00,57.0,49.5,30.01,ESE,121,0.0,6.0,76,0.00,,,0.06,Wunderground v.1.15,2013-04-27 02:59:00,
2013-04-26 22:01:00,57.0,49.5,30.01,ENE,67,0.0,8.0,76,0.00,,,0.06,Wunderground v.1.15,2013-04-27 03:01:00,
2013-04-26 22:02:00,57.0,49.5,30.01,East,96,0.0,8.0,76,0.00,,,0.06,Wunderground v.1.15,2013-04-27 03:02:00,
2013-04-26 22:04:00,57.1,49.6,30.01,NW,326,0.0,5.0,76,0.00,,,0.06,Wunderground v.1.15,2013-04-27 03:04:00,
2013-04-26 22:05:00,57.0,49.5,30.01,NNW,327,0.0,5.0,76,0.00,,,0.06,Wunderground v.1.15,2013-04-27 03:05:00,
2013-04-26 22:06:00,57.0,49.5,30.01,East,96,1.0,5.0,76,0.00,,,0.06,Wunderground v.1.15,2013-04-27 03:06:00,
2013-04-26 22:08:00,57.0,49.5,30.01,South,169,0.0,5.0,76,0.00,,,0.06,Wunderground v.1.15,2013-04-27 03:08:00,
2013-04-26 22:10:00,57.0,49.5,30.01,ENE,71,0.0,5.0,76,0.00,,,0.06,Wunderground v.1.15,2013-04-27 03:10:00,
2013-04-26 22:11:00,57.0,49.5,30.01,WSW,241,0.0,5.0,76,0.00,,,0.06,Wunderground v.1.15,2013-04-27 03:11:00,
2013-04-26 22:12:00,57.0,49.9,30.01,North,355,0.0,5.0,77,0.00,,,0.06,Wunderground v.1.15,2013-04-27 03:12:00,
2013-04-26 22:13:00,57.0,49.9,30.01,SW,236,0.0,0.0,77,0.00,,,0.06,Wunderground v.1.15,2013-04-27 03:13:00,
2013-04-26 22:15:00,57.0,49.9,30.01,South,171,0.0,2.0,77,0.00,,,0.06,Wunderground v.1.15,2013-04-27 03:15:00,
2013-04-26 22:16:00,57.0,49.9,30.01,South,171,0.0,2.0,77,0.00,,,0.06,Wunderground v.1.15,2013-04-27 03:16:00,
2013-04-26 22:17:00,57.0,49.9,30.01,SSE,153,0.0,6.0,77,0.00,,,0.06,Wunderground v.1.15,2013-04-27 03:17:00,
2013-04-26 22:19:00,57.0,49.9,30.02,SE,142,0.0,6.0,77,0.00,,,0.06,Wunderground v.1.15,2013-04-27 03:19:00,
2013-04-26 22:20:00,56.9,49.8,30.02,South,169,0.0,6.0,77,0.00,,,0.06,Wunderground v.1.15,2013-04-27 03:20:00,
2013-04-26 22:21:00,56.9,49.8,30.02,South,169,2.0,6.0,77,0.00,,,0.06,Wunderground v.1.15,2013-04-27 03:21:00,
2013-04-26 22:22:00,56.9,49.8,30.02,South,172,0.0,6.0,77,0.00,,,0.06,Wunderground v.1.15,2013-04-27 03:22:00,
2013-04-26 22:23:00,56.9,49.8,30.02,South,183,2.0,2.0,77,0.00,,,0.06,Wunderground v.1.15,2013-04-27 03:23:00,
2013-04-26 22:25:00,56.9,49.8,30.02,SE,138,0.0,2.0,77,0.00,,,0.06,Wunderground v.1.15,2013-04-27 03:25:00,
2013-04-26 22:26:00,56.9,49.8,30.02,SE,137,0.0,2.0,77,0.00,,,0.06,Wunderground v.1.15,2013-04-27 03:26:00,
2013-04-26 22:28:00,56.9,49.8,30.02,West,259,0.0,2.0,77,0.00,,,0.06,Wunderground v.1.15,2013-04-27 03:28:00,
2013-04-26 22:29:00,56.9,49.8,30.02,WNW,283,0.0,2.0,77,0.00,,,0.06,Wunderground v.1.15,2013-04-27 03:29:00,
2013-04-26 22:30:00,56.9,49.8,30.02,ESE,118,0.0,2.0,77,0.00,,,0.06,Wunderground v.1.15,2013-04-27 03:30:00,
2013-04-26 22:31:00,56.9,49.8,30.02,North,349,0.0,2.0,77,0.00,,,0.06,Wunderground v.1.15,2013-04-27 03:31:00,
2013-04-26 22:33:00,56.8,50.0,30.02,WSW,250,0.0,0.0,78,0.00,,,0.06,Wunderground v.1.15,2013-04-27 03:33:00,
2013-04-26 22:34:00,56.8,50.0,30.02,WSW,250,0.0,0.0,78,0.00,,,0.06,Wunderground v.1.15,2013-04-27 03:34:00,
2013-04-26 22:35:00,56.8,50.0,30.02,WSW,250,0.0,0.0,78,0.00,,,0.06,Wunderground v.1.15,2013-04-27 03:35:00,
2013-04-26 22:36:00,56.8,50.0,30.02,ESE,107,0.0,2.0,78,0.00,,,0.06,Wunderground v.1.15,2013-04-27 03:36:00,
2013-04-26 22:39:00,56.7,49.9,30.02,SSE,161,0.0,2.0,78,0.00,,,0.06,Wunderground v.1.15,2013-04-27 03:39:00,
2013-04-26 22:40:00,56.7,49.9,30.01,WSW,238,0.0,2.0,78,0.00,,,0.06,Wunderground v.1.15,2013-04-27 03:40:00,
2013-04-26 22:41:00,56.7,50.3,30.01,WSW,238,0.0,2.0,79,0.00,,,0.06,Wunderground v.1.15,2013-04-27 03:41:00,
2013-04-26 22:44:00,56.7,50.3,30.02,East,91,0.0,5.0,79,0.00,,,0.06,Wunderground v.1.15,2013-04-27 03:44:00,
2013-04-26 22:45:00,56.6,50.2,30.02,South,178,0.0,5.0,79,0.00,,,0.06,Wunderground v.1.15,2013-04-27 03:45:00,
2013-04-26 22:46:00,56.6,50.2,30.01,SSE,165,0.0,5.0,79,0.00,,,0.06,Wunderground v.1.15,2013-04-27 03:46:00,
2013-04-26 22:47:00,56.6,50.2,30.01,South,178,0.0,5.0,79,0.00,,,0.06,Wunderground v.1.15,2013-04-27 03:47:00,
2013-04-26 22:49:00,56.6,50.2,30.01,SSW,210,0.0,5.0,79,0.00,,,0.06,Wunderground v.1.15,2013-04-27 03:49:00,
2013-04-26 22:50:00,56.6,50.2,30.01,NE,44,0.0,5.0,79,0.00,,,0.06,Wunderground v.1.15,2013-04-27 03:50:00,
2013-04-26 22:51:00,56.6,50.2,30.01,South,178,0.0,5.0,79,0.00,,,0.06,Wunderground v.1.15,2013-04-27 03:51:00,
2013-04-26 22:52:00,56.6,50.2,30.01,SSE,164,0.0,5.0,79,0.00,,,0.06,Wunderground v.1.15,2013-04-27 03:52:00,
2013-04-26 22:54:00,56.5,50.1,30.00,South,172,0.0,4.0,79,0.00,,,0.06,Wunderground v.1.15,2013-04-27 03:54:00,
2013-04-26 22:55:00,56.5,50.1,30.00,South,190,1.0,4.0,79,0.00,,,0.06,Wunderground v.1.15,2013-04-27 03:55:00,
2013-04-26 22:57:00,56.5,50.1,30.00,South,184,0.0,4.0,79,0.00,,,0.06,Wunderground v.1.15,2013-04-27 03:57:00,
2013-04-26 23:00:00,56.4,50.3,30.00,SE,144,0.0,5.0,80,0.00,,,0.06,Wunderground v.1.15,2013-04-27 04:00:00,
2013-04-26 23:01:00,56.4,50.3,30.00,South,190,2.0,5.0,80,0.00,,,0.06,Wunderground v.1.15,2013-04-27 04:01:00,
2013-04-26 23:06:00,56.3,50.2,30.00,East,82,0.0,6.0,80,0.00,,,0.06,Wunderground v.1.15,2013-04-27 04:06:00,
2013-04-26 23:08:00,56.2,50.1,30.00,South,188,6.0,6.0,80,0.00,,,0.06,Wunderground v.1.15,2013-04-27 04:08:00,
2013-04-26 23:11:00,56.2,49.8,30.00,East,80,5.0,6.0,79,0.00,,,0.06,Wunderground v.1.15,2013-04-27 04:11:00,
2013-04-26 23:12:00,56.2,50.1,30.00,ESE,103,0.0,6.0,80,0.00,,,0.06,Wunderground v.1.15,2013-04-27 04:12:00,
2013-04-26 23:13:00,56.2,50.1,30.00,SSE,149,0.0,1.0,80,0.00,,,0.06,Wunderground v.1.15,2013-04-27 04:13:00,
2013-04-26 23:16:00,56.1,50.0,30.00,ENE,71,0.0,8.0,80,0.00,,,0.06,Wunderground v.1.15,2013-04-27 04:16:00,
2013-04-26 23:17:00,56.1,50.0,30.00,South,190,3.0,8.0,80,0.00,,,0.06,Wunderground v.1.15,2013-04-27 04:17:00,
2013-04-26 23:18:00,56.0,49.9,29.99,South,184,0.0,8.0,80,0.00,,,0.06,Wunderground v.1.15,2013-04-27 04:18:00,
2013-04-26 23:19:00,56.1,50.0,29.99,South,179,0.0,8.0,80,0.00,,,0.06,Wunderground v.1.15,2013-04-27 04:19:00,
2013-04-26 23:22:00,56.0,49.9,30.00,SE,140,0.0,8.0,80,0.00,,,0.06,Wunderground v.1.15,2013-04-27 04:22:00,
2013-04-26 23:23:00,56.0,49.9,30.00,SSW,193,0.0,5.0,80,0.00,,,0.06,Wunderground v.1.15,2013-04-27 04:23:00,
2013-04-26 23:24:00,55.9,49.8,30.00,SSW,192,0.0,5.0,80,0.00,,,0.06,Wunderground v.1.15,2013-04-27 04:24:00,
2013-04-26 23:27:00,55.9,49.8,29.99,South,182,0.0,5.0,80,0.00,,,0.06,Wunderground v.1.15,2013-04-27 04:27:00,
2013-04-26 23:28:00,55.9,49.8,29.99,SSE,155,0.0,5.0,80,0.00,,,0.06,Wunderground v.1.15,2013-04-27 04:28:00,
2013-04-26 23:29:00,55.9,49.8,29.99,South,173,0.0,5.0,80,0.00,,,0.06,Wunderground v.1.15,2013-04-27 04:29:00,
2013-04-26 23:33:00,55.8,49.7,29.99,South,175,0.0,5.0,80,0.00,,,0.06,Wunderground v.1.15,2013-04-27 04:33:00,
2013-04-26 23:34:00,55.8,49.7,29.99,South,173,0.0,2.0,80,0.00,,,0.06,Wunderground v.1.15,2013-04-27 04:34:00,
2013-04-26 23:38:00,55.8,49.7,29.99,South,179,0.0,7.0,80,0.00,,,0.06,Wunderground v.1.15,2013-04-27 04:38:00,
2013-04-26 23:39:00,55.7,49.6,29.99,South,182,0.0,7.0,80,0.00,,,0.06,Wunderground v.1.15,2013-04-27 04:39:00,
2013-04-26 23:40:00,55.7,49.6,29.99,ESE,115,0.0,7.0,80,0.00,,,0.06,Wunderground v.1.15,2013-04-27 04:40:00,
2013-04-26 23:43:00,55.7,49.6,29.99,South,178,0.0,1.0,80,0.00,,,0.06,Wunderground v.1.15,2013-04-27 04:43:00,
2013-04-26 23:44:00,55.7,49.6,29.99,South,184,3.0,3.0,80,0.00,,,0.06,Wunderground v.1.15,2013-04-27 04:44:00,
2013-04-26 23:45:00,55.7,49.6,30.00,South,180,3.0,3.0,80,0.00,,,0.06,Wunderground v.1.15,2013-04-27 04:45:00,
2013-04-26 23:48:00,55.7,49.3,29.99,SSE,159,1.0,6.0,79,0.00,,,0.06,Wunderground v.1.15,2013-04-27 04:48:00,
2013-04-26 23:49:00,55.7,49.3,29.99,SSE,159,0.0,6.0,79,0.00,,,0.06,Wunderground v.1.15,2013-04-27 04:49:00,
2013-04-26 23:50:00,55.7,49.6,29.99,South,169,0.0,6.0,80,0.00,,,0.06,Wunderground v.1.15,2013-04-27 04:50:00,
2013-04-26 23:54:00,55.7,49.6,30.00,SE,142,0.0,2.0,80,0.00,,,0.06,Wunderground v.1.15,2013-04-27 04:54:00,
2013-04-26 23:55:00,55.7,49.3,29.99,ENE,72,0.0,4.0,79,0.00,,,0.06,Wunderground v.1.15,2013-04-27 04:55:00,
2013-04-26 23:56:00,55.7,49.3,29.99,SSE,165,0.0,4.0,79,0.00,,,0.06,Wunderground v.1.15,2013-04-27 04:56:00,